GFSWCAN_sfc_wetblb_228.txt.gz
Wetbulb
58.12 58.02 57.69 57.65 57.60 57.21 56.66 56.14 55.34 53.88 53.56 53.41 52.77 52.14 51.06 49.63 46.75 39.88 34.93 37.35 35.84 28.66 28.62 31.81 32.12 31.10 30.56 29.49 25.62 27.11 25.79 25.31 22.66 17.05 18.42 18.58 18.79 19.79 16.97 17.38 17.96 14.65 6.76 2.94 1.86 -1.00 7.58 23.56 23.69 16.86 21.88 25.58 26.82 27.46
57.87 57.72 57.34 57.45 57.42 57.05 56.62 56.05 54.98 53.81 53.45 53.00 52.56 51.99 51.42 49.78 48.06 43.16 35.79 37.50 38.05 31.80 29.27 32.80 32.93 32.99 31.88 31.84 28.86 26.24 26.25 25.62 26.64 21.75 19.98 20.69 18.53 18.15 17.27 13.39 17.31 12.37 15.89 10.57 13.23 14.52 21.38 22.32 24.98 27.10 27.44 25.55 26.42 27.95
57.63 57.28 57.13 57.22 57.21 56.99 56.59 55.79 54.77 53.59 52.64 52.42 51.80 51.25 50.26 49.03 47.31 42.33 34.90 34.06 34.54 29.60 28.56 29.19 28.89 33.01 34.93 33.67 33.43 27.86 26.00 28.81 26.40 25.42 21.19 18.59 15.79 18.56 13.13 15.42 14.23 16.44 18.95 15.68 16.89 19.07 20.62 24.55 25.94 27.23 27.85 27.69 29.51 30.37
57.24 57.05 56.99 57.09 57.05 56.72 56.36 55.65 54.70 53.63 52.61 52.23 51.28 50.69 49.48 48.06 46.51 42.42 35.39 34.88 34.66 31.35 25.80 25.91 34.13 31.58 34.85 34.69 35.11 33.65 31.16 30.27 27.98 23.37 15.76 13.61 16.41 19.55 14.04 17.29 17.05 18.71 18.87 17.13 17.23 20.29 23.76 24.85 25.74 27.20 27.95 29.68 30.24 31.53
56.96 56.86 56.83 56.90 56.82 56.40 56.09 55.53 54.61 53.35 52.53 51.61 50.68 49.48 48.46 46.80 44.46 39.70 36.35 35.31 35.40 38.44 23.67 25.13 29.68 31.93 33.21 33.84 33.06 32.90 31.03 27.38 23.07 20.35 16.13 15.57 20.67 18.42 16.44 18.08 15.55 19.34 18.60 17.09 15.78 22.53 22.61 23.41 26.47 28.17 27.90 29.06 30.43 30.43
56.73 56.73 56.72 56.77 56.66 56.23 55.69 54.81 53.60 52.62 51.83 50.73 50.06 49.06 47.77 45.93 42.92 39.61 33.72 36.15 36.35 34.42 27.52 20.80 26.94 28.65 31.19 32.02 31.21 30.23 29.53 24.84 23.24 22.43 18.92 21.76 22.85 19.77 11.16 13.40 19.98 22.45 23.75 25.06 22.25 25.06 25.38 26.73 27.44 29.20 28.43 30.18 31.08 32.08
56.56 56.55 56.48 56.46 56.25 55.78 55.12 53.81 52.56 52.10 51.15 50.16 49.10 47.51 47.15 45.72 39.71 37.39 37.16 35.30 38.66 34.35 26.60 20.21 21.99 27.50 28.86 29.20 28.90 27.77 25.93 23.25 24.10 18.79 20.35 21.28 21.12 18.38 13.00 13.63 21.63 24.79 26.14 25.82 25.66 25.41 23.11 25.03 26.00 28.90 29.53 31.37 32.92 31.23
56.33 56.25 56.22 56.21 56.00 55.50 54.50 53.13 51.98 51.00 50.15 49.10 47.97 46.50 45.45 44.61 41.00 33.67 37.49 41.23 36.97 30.68 27.87 18.61 15.78 23.16 27.96 23.73 24.07 26.88 21.91 21.51 22.03 18.44 20.36 21.35 20.09 17.16 11.98 20.17 22.61 25.52 25.86 23.76 25.88 25.64 26.35 26.84 28.13 29.39 31.06 31.19 29.77 29.41
56.05 56.20 56.45 56.41 56.15 55.46 53.88 52.43 50.88 49.86 48.96 47.28 46.03 44.58 40.41 36.48 33.15 32.55 41.97 40.18 38.36 34.50 22.31 19.35 21.08 18.42 28.06 24.01 24.30 24.73 23.42 16.34 21.67 16.71 18.39 19.74 15.25 13.00 20.74 20.42 23.12 24.97 24.89 25.35 25.60 25.45 26.41 25.04 27.27 28.93 28.85 28.99 28.11 28.94
56.03 56.28 56.40 56.27 56.00 54.56 52.88 51.17 49.59 47.89 47.30 46.88 41.86 37.58 32.64 35.44 40.93 40.11 35.45 33.41 32.10 31.45 28.78 19.81 23.03 20.04 25.63 23.65 18.00 19.84 18.41 14.92 12.23 17.41 20.61 12.06 16.46 21.58 22.73 23.88 25.82 26.71 26.90 27.23 22.06 23.19 24.66 25.21 27.06 27.71 27.49 28.44 27.91 29.03
55.96 56.09 56.01 55.67 54.85 53.02 51.23 49.56 47.82 47.01 45.23 39.91 35.59 31.67 36.09 39.59 36.11 33.27 28.51 29.98 26.46 19.50 21.08 23.82 24.10 21.71 26.45 21.11 19.12 22.28 14.30 10.60 10.12 16.44 14.18 14.28 14.81 20.26 24.19 24.33 25.98 26.42 27.29 27.02 26.71 26.57 27.95 28.21 28.00 27.88 27.83 27.79 28.16 29.44
56.01 55.87 55.64 55.01 53.10 51.22 49.42 47.68 46.79 42.52 39.55 38.78 35.71 36.95 35.91 33.26 29.95 28.14 26.03 23.93 18.82 20.82 22.55 23.22 24.28 25.23 24.27 26.94 22.46 19.69 15.96 14.70 9.50 20.17 12.64 14.22 18.99 23.05 24.62 25.24 25.75 26.37 27.10 27.51 28.61 28.11 28.39 28.71 28.18 27.24 26.48 27.26 28.38 29.58
55.91 55.67 55.31 53.53 51.62 49.85 48.11 47.13 47.56 43.75 42.24 41.16 36.29 32.17 32.55 28.64 26.31 24.11 20.20 16.99 17.64 22.67 24.11 24.69 23.17 24.62 24.59 25.61 21.13 20.24 16.81 15.82 21.73 14.02 15.35 17.69 21.91 24.13 24.71 25.93 25.79 26.54 27.34 27.44 26.86 26.74 27.23 27.00 27.69 26.88 27.08 28.28 29.31 29.66
55.51 55.07 53.96 52.02 50.31 48.80 47.45 46.89 44.48 45.88 43.11 35.14 32.88 28.81 29.40 24.69 27.00 26.66 23.76 22.80 23.94 24.59 25.74 26.14 24.03 24.09 25.20 22.66 21.46 18.47 17.08 20.70 13.83 12.79 15.30 20.43 21.53 23.61 24.79 25.69 26.01 25.93 25.97 26.43 25.23 26.39 25.62 26.03 26.57 27.78 27.91 28.81 29.35 29.62
54.90 54.17 52.20 50.45 49.17 48.04 46.88 45.83 48.24 42.81 38.47 32.88 33.38 34.23 27.31 26.15 20.60 21.69 22.19 23.43 25.06 29.20 26.75 24.27 23.32 24.40 20.83 19.24 21.01 19.07 15.67 13.26 15.79 15.73 19.46 21.47 22.65 23.87 23.85 24.56 25.05 24.93 25.70 26.08 25.78 26.21 26.14 25.97 26.40 26.98 28.08 29.15 29.73 30.16
54.04 52.10 51.55 49.35 48.33 47.11 46.58 46.13 41.15 39.81 33.36 32.41 28.76 24.66 25.78 23.36 18.71 22.25 23.73 24.92 29.44 29.03 26.03 25.51 19.82 18.11 16.75 20.26 15.72 16.76 15.43 14.74 18.37 20.11 21.86 23.02 23.43 23.48 24.02 24.93 25.38 24.66 24.89 24.88 25.09 26.36 26.83 25.88 26.09 27.04 28.02 29.14 29.30 29.78
51.90 47.41 49.43 48.34 47.48 46.81 45.46 38.80 37.88 31.70 29.74 25.87 24.40 27.33 25.50 25.11 23.13 24.06 26.61 26.90 31.54 29.10 21.36 23.10 18.28 18.72 21.49 18.49 15.83 20.62 18.96 21.05 21.36 20.93 23.68 24.90 24.50 23.67 24.12 24.42 24.63 24.97 24.66 23.96 24.03 25.52 26.18 26.91 27.13 27.67 27.30 28.22 29.16 29.84
53.14 49.16 48.38 47.57 45.76 43.06 35.51 33.71 32.54 29.24 24.32 26.12 25.05 26.56 28.06 27.67 26.78 27.54 28.72 30.72 30.69 27.33 25.94 22.50 24.60 19.74 18.84 15.82 17.90 23.15 23.51 23.02 22.21 23.29 24.51 24.69 23.32 23.44 25.21 23.80 24.32 24.78 24.05 23.78 23.93 25.18 25.55 25.45 25.75 26.76 27.98 28.44 28.70 28.58
49.93 47.88 47.61 46.50 43.67 33.06 29.31 28.88 30.00 23.05 23.85 26.52 27.80 28.84 28.15 28.65 29.85 30.98 30.95 30.06 30.65 30.67 27.64 25.81 22.40 20.69 21.01 23.67 23.96 24.44 23.89 23.62 23.49 22.47 23.24 23.09 24.17 24.24 24.39 24.06 24.00 23.29 23.55 23.32 23.81 24.73 25.55 25.22 25.51 27.13 27.91 28.17 28.44 28.16
48.99 47.63 46.48 46.26 39.00 30.51 25.93 26.23 31.02 26.43 23.70 25.49 28.26 27.24 27.79 28.13 29.53 29.92 30.31 30.28 28.32 25.84 22.56 21.25 22.53 24.35 24.69 25.70 26.95 27.12 26.59 26.33 26.07 23.36 21.99 21.91 22.09 22.75 22.84 22.88 22.56 22.44 22.60 22.49 23.67 29.18 25.40 25.73 26.51 27.83 27.91 28.79 27.97 27.38
46.20 45.03 43.03 35.17 31.34 30.37 27.73 26.39 25.34 26.30 26.32 25.47 27.85 27.14 26.57 29.02 27.72 27.84 26.52 28.25 25.51 23.58 22.60 25.06 25.99 25.26 26.47 26.95 28.84 28.48 28.13 28.82 27.54 27.13 24.82 21.85 21.61 21.84 21.73 22.37 22.60 22.38 22.92 23.22 23.45 24.44 27.01 25.15 25.03 26.45 27.73 27.61 27.66 27.19
34.06 38.11 31.92 32.69 28.67 27.75 25.94 28.79 26.22 28.15 26.60 26.05 26.13 27.09 24.88 24.22 24.65 25.23 26.87 25.22 24.49 25.09 26.59 26.38 26.16 26.07 26.26 26.42 27.32 29.33 26.77 25.31 25.28 28.05 29.29 28.01 21.18 21.22 21.28 22.81 23.35 23.90 23.68 23.97 24.02 23.52 24.11 25.17 24.41 25.94 27.35 27.38 29.21 27.56
36.68 34.34 29.80 29.45 25.36 24.98 23.43 29.41 24.35 26.32 22.35 22.96 25.28 22.20 22.34 23.28 24.93 27.00 23.48 24.37 24.67 27.98 27.68 27.39 27.09 27.78 27.26 26.94 27.24 26.22 26.46 26.07 24.71 24.37 26.37 23.58 23.74 23.07 22.63 23.56 24.89 24.70 24.58 25.19 25.57 24.98 25.26 28.98 28.12 28.58 28.56 28.79 28.10 27.47
34.00 26.23 23.39 21.98 22.58 19.56 24.63 22.15 25.87 24.65 24.88 22.00 20.56 18.93 20.90 22.27 25.07 23.29 21.31 23.58 25.92 27.05 26.02 25.94 27.12 25.48 25.79 25.80 25.16 25.07 25.48 25.82 24.53 24.20 24.65 23.96 22.76 23.32 23.46 24.20 24.74 25.29 26.12 26.16 26.18 26.23 25.52 26.22 29.65 28.30 28.90 28.83 28.12 27.44
21.91 18.31 22.41 18.73 23.10 20.65 19.23 20.17 21.00 21.78 19.24 20.87 18.27 18.89 20.55 24.26 19.95 19.85 20.66 23.54 24.52 25.09 25.83 26.56 26.78 27.43 25.98 23.85 24.30 24.76 25.63 26.31 25.11 23.75 23.89 24.57 23.41 22.65 23.63 24.35 25.08 25.87 27.20 26.28 26.40 26.84 26.85 27.26 27.32 28.66 29.05 28.87 28.06 27.52
15.65 19.05 19.88 20.23 21.00 20.60 21.07 18.56 20.22 20.28 20.88 18.96 19.96 22.11 23.20 21.09 17.97 17.72 21.25 23.83 24.74 25.35 25.69 26.65 26.36 23.94 23.91 25.09 24.67 24.15 25.26 25.77 25.66 25.43 24.94 24.71 24.85 24.74 24.50 24.72 25.12 26.95 28.35 28.32 27.99 27.55 27.64 27.75 28.05 28.94 28.61 29.19 32.51 28.48
15.79 17.22 21.63 25.06 24.43 24.06 22.36 23.47 24.19 21.73 18.63 16.93 19.27 19.85 19.22 15.18 15.92 20.75 23.91 25.84 25.64 26.96 29.35 29.29 28.04 27.49 26.33 24.54 24.79 25.34 26.05 26.32 26.61 26.41 26.17 25.60 25.71 26.37 27.00 26.33 26.48 28.46 29.32 29.11 28.77 28.41 27.91 27.68 28.36 29.13 29.07 28.83 28.73 28.11
21.37 22.79 19.29 22.12 22.90 24.21 21.22 21.94 20.28 18.86 19.76 22.61 21.75 17.25 16.53 18.19 18.78 23.40 25.28 26.31 28.35 29.49 28.83 28.37 27.71 27.38 26.92 26.35 25.75 25.62 25.26 25.86 26.31 26.10 25.64 25.34 25.10 26.24 26.40 27.43 28.21 33.23 29.27 29.16 29.15 28.70 28.41 28.36 28.59 29.10 29.41 29.08 28.20 28.19
21.39 23.82 24.54 21.75 23.34 22.54 20.04 19.47 20.00 22.18 24.36 22.95 19.52 18.17 19.28 22.45 24.18 24.22 25.10 27.29 29.57 28.65 26.75 25.87 24.33 24.75 24.40 24.56 24.78 25.58 26.56 26.16 24.70 22.77 22.26 21.79 21.22 23.40 24.88 25.95 26.34 26.77 27.75 29.49 34.15 31.52 29.56 29.33 29.37 29.67 29.93 29.55 28.89 28.49
20.36 24.63 22.39 20.43 20.00 17.81 19.54 22.21 21.70 22.64 23.03 23.32 23.84 22.81 22.64 22.95 24.47 26.19 26.90 27.75 27.62 27.60 28.11 28.09 25.86 25.38 23.96 24.33 23.15 23.13 23.98 26.04 25.31 24.02 23.03 22.40 23.12 24.37 24.62 26.00 26.53 26.44 26.64 28.05 28.96 30.13 35.56 32.84 33.16 29.66 29.21 28.56 28.22 27.78
22.18 21.99 19.72 19.37 17.69 19.79 21.46 23.19 24.40 24.23 22.93 22.04 22.70 24.22 21.62 23.12 24.82 25.27 24.81 25.34 26.63 26.57 26.26 24.97 24.90 24.72 24.48 23.02 23.82 23.58 22.99 24.14 24.75 25.63 24.97 24.22 24.36 24.51 25.11 25.97 26.66 26.31 26.86 27.97 28.48 29.28 30.61 29.97 29.10 28.73 28.65 28.40 28.36 28.87
20.31 19.50 19.38 16.82 18.09 20.65 21.97 21.11 20.48 20.06 20.47 21.23 19.64 19.84 21.41 22.30 20.43 23.57 24.84 24.81 25.32 24.99 28.37 26.92 25.54 25.26 25.95 26.55 25.76 24.96 30.08 25.73 26.36 26.49 26.29 26.50 24.84 25.29 25.95 26.20 26.31 26.44 27.14 27.90 28.35 29.01 30.11 29.88 29.32 28.77 28.68 28.49 28.29 28.37
19.36 20.17 19.57 19.40 17.33 18.15 19.46 18.91 17.88 17.75 18.03 17.64 18.06 19.47 19.64 21.12 20.12 23.82 23.80 24.71 25.98 26.87 26.11 26.72 26.00 24.23 25.39 25.83 25.51 25.51 29.13 25.34 27.19 31.25 31.97 32.19 32.03 30.02 26.09 25.85 26.61 27.71 27.91 28.20 28.67 29.06 29.59 29.60 29.30 28.93 28.66 28.40 28.08 28.15

GFSWCAN_sfc_wetblb_231.txt.gz
Wetbulb
58.45 58.42 58.36 57.77 57.21 56.87 56.58 55.85 54.81 54.12 53.71 52.95 52.54 51.47 49.98 48.41 46.18 38.77 34.03 36.62 35.37 28.27 27.94 30.72 31.30 30.56 30.19 28.70 25.08 26.06 25.66 25.75 23.91 18.67 21.23 21.16 20.74 21.14 19.53 20.37 20.01 17.51 12.68 11.52 7.32 7.85 12.52 25.20 26.13 20.25 24.84 27.94 27.85 28.24
58.25 58.28 57.94 57.33 56.93 56.66 56.37 55.61 54.43 54.22 53.45 52.96 52.59 52.09 51.45 49.37 47.14 42.26 35.40 36.75 37.51 31.27 29.10 32.35 32.78 32.78 31.51 31.35 27.90 25.72 26.97 26.15 27.40 22.83 21.54 21.67 19.99 19.69 18.70 17.27 19.59 16.78 19.51 16.38 16.88 18.98 23.80 26.10 27.28 29.13 29.27 27.49 27.98 28.52
57.91 57.94 57.53 56.94 56.64 56.52 56.10 55.13 54.30 53.73 52.96 52.14 52.12 51.82 50.82 49.10 47.23 42.02 34.51 33.63 34.37 29.15 28.69 28.94 28.26 32.03 34.66 33.03 32.92 27.29 25.90 29.00 26.76 26.14 23.07 20.96 18.60 19.74 16.21 17.68 18.13 19.94 20.99 19.46 19.59 21.60 22.72 25.62 27.14 28.63 29.66 28.98 30.07 30.80
57.52 57.56 57.06 56.57 56.39 56.20 55.61 54.69 54.20 53.48 52.50 51.87 51.26 50.61 49.45 47.90 46.11 42.08 35.35 34.35 35.85 31.98 27.41 26.37 33.59 30.78 33.97 33.80 34.68 32.79 30.29 28.83 27.02 24.39 18.29 18.02 19.53 21.08 17.34 19.34 19.57 20.82 20.84 18.98 19.44 21.94 24.57 26.91 28.27 28.49 28.65 30.09 30.67 31.80
57.22 57.07 56.53 56.26 56.14 55.79 55.17 54.40 53.75 53.05 52.20 51.57 50.69 49.54 48.22 46.77 44.81 39.34 35.95 34.60 35.28 39.17 23.88 25.03 28.93 30.91 32.09 32.70 32.05 31.93 30.40 26.97 23.43 22.28 19.04 18.59 21.15 20.05 17.69 19.47 17.10 20.47 19.97 19.33 18.80 23.69 24.74 25.29 27.60 28.76 28.52 29.61 30.99 30.81
56.85 56.52 56.13 56.00 55.91 55.43 54.54 53.49 52.99 52.24 51.63 50.55 49.61 48.76 47.26 45.77 44.00 43.17 35.72 36.69 35.07 34.06 27.78 21.83 26.55 28.09 30.28 31.09 29.90 28.84 28.71 24.74 23.73 23.24 20.71 22.69 23.65 21.33 15.17 16.12 21.39 22.06 23.53 25.42 24.62 26.38 26.63 27.74 28.65 30.31 28.99 30.48 31.50 32.51
56.43 56.03 55.80 55.84 55.71 54.90 53.57 52.45 52.05 51.64 50.80 49.80 49.44 48.85 47.71 46.00 40.56 39.61 39.01 36.05 37.67 34.53 26.95 19.99 21.80 27.19 27.75 28.35 27.58 26.86 25.57 23.12 23.95 20.70 21.99 22.76 22.68 20.07 16.15 15.59 21.78 23.93 25.82 26.23 27.41 27.68 25.59 27.57 27.41 29.23 30.00 31.62 32.79 31.66
56.06 55.71 55.64 55.62 55.40 54.34 52.84 52.06 51.42 50.63 50.18 49.62 47.87 46.33 45.42 44.62 41.18 34.59 36.86 40.17 35.90 30.37 28.41 19.59 15.24 22.68 27.16 22.99 22.94 26.26 21.98 21.23 21.39 20.11 22.05 22.64 20.86 18.54 14.65 20.64 22.82 25.51 26.26 26.34 27.09 28.03 27.74 28.09 28.77 29.79 31.14 30.86 29.27 29.38
55.62 55.54 55.66 55.51 55.04 53.66 52.46 51.47 50.60 49.95 48.67 47.67 46.42 44.82 40.05 34.72 32.10 33.08 41.77 39.26 35.22 35.11 22.74 21.50 21.29 19.17 27.14 22.82 23.55 24.59 23.18 16.01 21.78 19.09 20.75 21.67 17.63 15.31 21.61 20.92 23.88 25.08 25.81 26.21 26.50 27.60 27.61 27.78 28.30 28.89 28.80 28.25 27.61 28.90
55.40 55.44 55.43 55.18 54.39 52.92 51.68 50.58 49.51 48.51 48.08 47.40 43.47 39.86 31.10 32.51 41.43 39.86 34.68 32.78 30.23 26.61 25.27 21.19 23.21 20.37 24.51 22.44 17.29 19.47 18.98 15.76 13.02 18.85 21.79 16.83 17.89 21.91 23.00 24.13 27.28 26.26 26.97 27.15 25.27 24.83 26.73 27.32 27.93 27.91 27.54 28.07 28.00 28.74
55.19 55.06 54.90 54.47 53.06 51.78 50.53 49.25 48.54 48.14 47.12 42.16 34.85 32.00 33.95 39.84 35.16 32.40 28.45 30.06 21.69 21.77 22.04 23.42 23.85 21.19 25.18 20.10 19.74 22.42 14.28 12.18 11.84 18.00 16.92 16.91 15.97 20.79 23.49 23.53 26.00 26.70 27.41 27.49 27.80 28.36 29.25 29.41 28.50 27.94 27.55 27.77 28.58 29.55
54.93 54.76 54.47 53.51 52.08 50.66 49.02 47.97 48.09 44.36 42.18 39.78 35.83 37.45 36.40 33.54 31.60 30.72 27.02 24.22 19.60 23.95 23.30 23.43 23.73 24.55 24.28 25.40 20.75 18.09 14.63 15.14 12.21 20.98 15.95 16.18 20.37 23.07 23.68 24.74 25.38 26.42 27.20 27.52 28.85 29.39 29.76 29.88 28.76 27.56 27.26 27.95 29.26 30.09
54.84 54.54 54.04 52.71 51.12 49.56 48.09 47.75 49.20 43.88 42.92 40.63 37.00 32.45 33.25 29.75 28.04 28.60 24.99 19.71 18.20 22.98 24.19 24.75 23.03 24.02 24.36 23.47 18.65 18.55 13.19 15.09 22.24 16.71 17.66 19.53 22.53 23.52 24.68 25.69 25.18 26.54 27.48 28.01 28.04 28.30 28.53 27.78 28.23 27.91 27.81 29.18 30.03 30.18
54.51 54.15 52.90 51.42 49.92 48.27 47.78 47.42 44.84 46.37 45.56 35.66 34.43 29.09 31.96 26.91 28.13 28.10 27.87 25.01 25.14 25.07 25.88 25.74 23.87 24.34 24.53 20.59 18.77 14.60 15.39 19.98 15.05 15.26 16.79 21.77 21.95 24.10 25.37 26.34 25.80 25.57 26.61 27.26 27.27 27.72 27.20 26.72 27.08 28.18 28.48 29.23 29.78 29.79
54.26 53.31 51.61 50.25 48.81 48.00 47.41 46.10 48.11 45.59 39.59 35.24 34.88 35.19 30.16 25.83 21.00 21.84 21.89 23.66 25.10 29.20 26.23 23.98 22.97 23.23 17.59 16.65 18.69 17.28 14.80 13.25 16.57 17.34 20.92 22.35 23.82 25.01 24.67 24.80 25.37 25.09 25.39 25.88 26.13 26.64 27.10 26.29 26.55 27.43 28.57 29.30 29.95 30.20
53.86 51.91 51.04 49.46 48.22 48.05 46.81 47.78 42.27 40.08 33.94 33.64 31.55 27.98 25.74 22.84 20.77 22.18 23.89 24.58 29.12 28.32 25.59 24.72 17.39 15.05 13.19 17.57 13.69 16.53 15.71 15.84 20.47 21.63 22.84 23.95 24.52 24.87 24.96 25.08 25.37 24.92 25.53 25.74 25.96 26.93 27.45 26.34 26.74 27.55 28.51 29.46 29.59 29.99
51.71 49.19 49.84 48.95 48.48 47.05 48.17 40.41 38.24 37.92 37.80 28.18 25.77 27.61 25.73 27.97 25.79 24.46 26.45 27.82 31.75 28.77 20.81 19.64 17.11 18.51 19.34 13.33 14.98 20.35 19.09 23.08 23.89 22.49 23.83 26.90 26.10 25.05 24.31 24.63 24.95 25.17 24.45 23.94 24.30 25.66 26.43 27.26 27.47 28.22 28.24 28.89 29.19 30.09
52.78 49.74 48.84 48.33 47.35 46.70 36.12 35.53 36.49 33.11 27.21 25.76 26.09 27.44 28.62 28.60 27.32 27.58 28.24 30.78 30.18 24.96 23.77 20.77 22.58 15.73 16.70 14.75 16.93 22.41 23.81 23.13 23.59 24.38 25.09 25.60 24.55 24.52 26.20 24.42 24.53 24.71 23.85 23.62 24.16 25.39 25.81 25.72 26.17 27.35 28.63 29.17 29.56 29.16
50.14 48.45 48.30 47.98 46.81 34.57 31.75 30.30 31.44 25.10 24.45 26.91 28.33 28.97 28.61 28.02 28.97 30.87 30.83 31.81 31.26 30.55 28.13 26.58 21.75 19.99 20.66 22.85 23.18 24.56 24.90 25.08 23.71 24.95 24.65 24.76 25.20 24.72 24.16 23.95 23.74 23.32 23.59 23.38 23.42 24.88 25.92 25.92 26.19 27.33 28.64 29.03 29.45 29.01
49.22 48.21 47.70 48.14 43.71 31.43 27.08 26.47 31.35 27.28 24.15 26.02 28.43 27.57 28.12 27.80 29.52 30.24 30.00 29.33 28.87 28.23 24.88 21.97 22.53 23.96 23.29 25.43 27.41 27.67 27.66 27.79 27.02 26.02 24.09 22.22 22.48 23.39 23.24 23.29 22.98 22.70 22.88 22.34 23.21 27.77 25.68 26.01 26.73 28.07 28.47 29.69 29.15 28.21
46.85 46.63 46.89 41.94 31.94 31.21 28.47 26.29 25.42 27.09 26.70 25.16 28.26 27.78 26.87 29.04 27.70 27.51 27.76 29.00 26.53 24.92 24.07 24.07 24.93 24.53 26.54 27.44 28.85 28.97 28.47 30.13 29.41 29.12 25.89 22.52 20.54 21.89 21.06 21.60 21.58 21.62 22.42 22.96 23.29 24.44 28.38 25.47 25.56 26.70 28.22 28.64 28.63 28.18
43.79 43.22 32.73 33.43 28.30 27.31 26.22 28.62 26.60 28.21 26.70 26.23 26.39 27.47 25.57 25.16 25.88 26.04 27.86 26.16 25.61 25.87 26.61 26.57 25.87 25.96 26.71 27.14 28.44 30.08 30.36 28.83 28.65 29.34 30.08 27.07 20.70 20.32 20.55 21.91 22.82 23.40 23.39 23.82 24.00 23.57 23.63 24.82 24.81 25.51 27.83 28.23 29.52 28.24
43.09 36.77 31.15 29.97 25.27 24.40 22.73 29.20 24.94 26.56 22.43 23.15 24.98 22.66 22.73 23.68 25.28 28.60 24.70 26.29 26.33 28.05 28.63 27.30 27.03 28.60 27.34 27.68 28.04 28.31 29.45 29.37 28.20 27.06 27.05 22.90 22.80 22.20 22.29 23.13 24.50 24.31 24.07 24.52 24.77 24.71 24.79 28.89 28.51 28.07 28.91 29.46 28.71 28.13
34.99 27.07 23.60 22.54 23.68 20.47 24.74 22.47 25.54 24.06 24.57 21.95 20.65 18.80 20.39 21.63 25.23 23.73 21.22 23.29 24.32 27.18 26.17 26.17 27.21 25.62 26.69 27.72 27.27 27.46 26.99 29.27 26.87 25.10 24.16 23.66 21.65 22.07 22.99 23.76 24.68 25.55 26.05 25.70 25.66 26.01 25.73 26.31 29.51 28.84 29.26 29.26 28.49 27.86
23.10 18.95 22.61 18.86 22.93 20.38 19.32 20.10 20.72 19.69 17.98 20.27 18.23 18.68 20.51 23.90 19.34 20.00 20.06 22.78 25.12 25.67 25.87 26.98 28.12 28.62 27.45 26.45 26.18 25.75 26.45 28.79 26.90 24.35 23.16 24.16 22.80 22.08 22.75 23.77 24.75 25.46 26.63 25.65 25.80 26.89 26.75 26.66 27.17 28.47 29.10 29.15 28.48 28.13
15.65 19.55 20.21 20.12 20.36 20.20 20.45 17.70 17.98 19.54 19.70 18.19 18.98 20.95 22.99 20.63 17.24 16.40 21.62 24.76 27.08 26.39 26.17 26.91 26.78 26.28 26.48 28.43 26.17 25.23 25.86 26.42 26.86 25.18 23.62 24.42 24.67 24.16 24.29 24.23 24.45 25.80 27.40 27.56 27.38 27.28 27.39 27.49 27.78 28.69 28.89 29.85 32.58 28.67
15.66 16.99 21.64 26.12 25.24 24.42 22.51 23.42 24.21 20.51 17.47 15.97 19.23 19.81 19.86 16.93 16.93 20.93 26.19 28.64 27.04 28.64 29.57 29.79 29.70 29.01 27.43 25.73 26.28 26.56 26.94 27.03 26.71 26.04 26.29 25.85 25.52 26.44 26.70 25.92 25.37 27.81 28.88 28.57 28.52 28.56 28.10 27.90 28.01 28.76 29.29 28.97 29.26 28.66
21.79 23.01 19.32 23.09 23.48 24.61 21.77 21.69 20.00 18.47 20.06 22.58 22.26 18.73 18.42 18.89 19.20 24.57 28.32 28.57 30.29 30.39 29.92 29.58 29.53 29.71 28.60 28.01 27.49 26.69 26.18 25.90 25.71 26.02 25.98 25.53 25.59 25.98 26.36 26.96 27.82 33.31 29.13 29.24 29.32 29.06 28.67 28.41 27.95 28.73 29.56 29.27 28.56 28.37
22.33 25.53 25.32 22.24 23.26 21.22 20.65 20.86 20.99 23.55 25.12 25.30 21.05 20.10 19.18 22.98 25.06 26.15 27.26 29.08 29.95 29.15 26.40 25.76 24.67 26.75 26.32 26.57 27.47 27.81 26.65 27.14 25.93 23.61 23.46 23.65 23.35 25.13 25.38 25.54 26.20 27.42 27.83 29.58 34.01 31.14 29.24 28.53 28.51 29.28 30.10 29.83 29.26 28.53
21.94 26.22 22.48 20.41 18.03 17.01 19.48 23.17 22.61 26.61 24.34 24.64 23.97 23.31 23.06 23.18 25.28 28.87 28.75 28.69 28.11 28.08 28.69 28.24 26.24 27.09 25.47 25.54 24.74 24.48 25.20 26.31 27.38 27.44 24.62 22.82 23.03 24.36 23.72 25.57 26.09 25.98 26.29 27.99 28.93 30.32 35.22 32.16 32.84 29.87 29.35 28.62 28.21 27.88
24.19 23.75 20.12 19.14 17.80 20.95 23.32 25.26 25.51 24.61 23.74 23.65 27.46 25.91 23.26 22.95 24.90 25.70 26.64 29.81 29.74 28.98 27.23 25.00 25.81 27.14 26.24 25.55 25.67 24.51 24.40 25.31 25.26 25.57 25.59 24.29 24.07 23.49 24.73 25.19 26.11 25.99 26.63 27.72 28.21 28.86 30.34 29.94 29.19 28.93 28.70 28.60 28.50 29.01
21.91 20.61 20.12 18.40 19.09 21.71 22.95 21.79 21.59 22.30 23.42 24.04 21.39 21.61 23.12 23.15 20.00 23.45 24.67 27.85 27.55 27.11 29.50 27.84 26.18 25.14 27.54 27.89 27.60 27.00 32.37 28.91 27.50 27.32 26.19 25.64 24.24 24.86 25.23 25.25 25.73 25.98 26.55 27.17 27.75 28.48 29.48 29.93 29.30 28.81 28.69 28.69 28.65 28.56
21.71 22.37 22.53 20.59 18.92 19.24 19.98 20.44 19.39 19.43 19.09 18.12 18.31 19.91 20.20 21.88 20.14 22.75 24.40 25.06 27.31 28.72 28.07 28.13 27.98 27.40 25.96 26.52 26.77 27.06 29.18 25.70 28.12 31.78 32.00 31.97 31.45 28.54 24.94 25.12 25.90 26.73 26.89 26.90 27.39 28.08 28.59 29.26 29.42 29.14 28.86 28.58 28.50 28.28

GFSWCAN_sfc_wetblb_237.txt.gz
Wetbulb
51.83 53.48 56.47 58.90 59.04 58.69 58.39 57.88 57.07 56.07 54.41 53.92 53.37 54.50 52.14 50.97 51.69 53.28 45.84 48.72 50.03 41.86 38.19 40.15 39.58 41.06 40.76 44.40 42.21 39.07 37.75 36.36 37.65 35.95 39.56 36.59 35.85 34.04 31.50 32.46 31.28 30.26 30.26 30.51 27.50 24.62 24.67 32.99 31.72 26.27 31.38 34.08 33.87 34.34
51.54 52.73 54.57 56.38 58.69 58.50 58.13 57.42 56.48 55.25 54.36 54.08 53.65 52.94 52.07 50.46 49.61 51.83 44.67 46.32 46.96 42.59 38.19 40.69 39.99 40.17 38.92 39.00 41.05 40.61 40.82 39.42 40.79 39.49 38.13 37.06 33.97 33.37 32.37 33.05 31.72 30.69 32.85 33.30 31.12 31.49 33.37 34.04 33.22 35.19 34.99 33.48 34.30 34.75
50.59 51.85 52.81 54.59 58.39 58.17 57.78 57.07 55.95 54.58 53.87 53.37 53.04 52.39 51.86 50.16 48.86 50.53 46.19 47.04 45.86 40.54 39.11 41.33 37.14 40.16 42.09 41.59 42.13 41.10 40.16 40.11 38.41 40.12 40.88 38.39 36.24 36.04 33.26 33.88 33.06 32.25 32.32 30.81 29.44 32.47 31.99 32.99 34.47 34.99 35.46 34.94 36.11 36.93
49.92 51.16 51.90 53.54 57.97 57.61 57.24 56.63 55.48 54.31 53.55 53.10 52.69 52.20 51.32 49.91 49.52 49.76 48.04 47.79 50.86 47.47 40.82 35.51 41.45 38.06 41.85 42.90 40.97 41.48 39.75 39.67 39.86 42.48 38.61 38.90 36.53 34.47 35.06 33.04 32.82 34.29 31.87 31.92 31.46 32.51 32.38 33.46 34.67 34.69 35.32 36.38 36.76 36.39
49.42 50.77 51.22 52.93 57.48 57.05 56.63 55.97 54.89 53.95 53.21 52.81 52.59 52.25 50.71 49.23 49.34 49.27 47.76 46.89 50.01 49.58 37.81 35.44 39.00 39.27 41.52 41.74 40.74 41.50 40.90 40.30 40.31 39.60 38.97 36.00 34.45 33.03 33.67 32.32 31.79 33.73 33.24 31.52 32.61 35.11 34.61 34.40 35.22 35.42 34.91 35.65 35.68 35.01
49.88 50.44 50.61 52.72 57.06 56.54 55.84 54.81 53.69 53.28 52.88 52.24 51.51 50.63 49.53 48.94 49.84 55.55 44.86 46.96 46.66 47.35 41.62 37.09 37.54 36.53 38.87 40.03 38.80 37.71 38.47 38.59 39.40 38.40 35.53 34.59 33.08 34.43 32.26 32.29 35.70 35.35 35.80 36.47 33.80 36.40 35.77 35.65 36.00 36.40 35.65 35.75 35.77 35.66
49.58 49.79 50.69 52.35 56.70 56.04 54.81 53.48 52.78 52.74 52.35 51.29 50.26 49.57 48.86 48.19 49.68 50.93 51.13 46.15 45.47 48.76 36.86 33.43 33.20 36.11 36.68 37.98 37.89 37.95 38.35 36.69 38.40 36.05 35.80 35.81 33.90 34.29 33.02 31.17 34.51 34.66 35.17 36.30 37.11 35.78 33.32 34.57 34.56 36.56 36.34 35.95 36.48 37.03
49.09 49.99 50.87 51.83 56.32 55.47 53.96 52.74 52.37 51.96 51.25 50.36 49.34 48.71 47.70 46.74 45.74 45.60 42.58 43.18 46.19 44.48 43.68 32.93 29.88 33.59 36.58 35.23 34.11 37.27 35.62 36.81 34.14 34.74 34.73 34.27 32.53 32.54 27.78 34.78 33.83 34.51 35.56 35.66 35.86 36.22 36.20 36.73 36.59 36.18 35.99 35.89 35.10 35.26
49.19 50.03 50.04 51.51 55.91 54.98 53.26 52.37 51.66 50.92 50.55 49.52 47.51 47.02 50.83 46.91 47.64 43.85 42.56 43.17 48.08 45.55 33.07 35.03 34.64 32.45 36.30 34.37 35.51 35.39 35.45 32.74 33.07 33.88 33.41 31.82 32.43 27.59 33.64 34.87 33.09 33.99 34.23 34.62 35.68 35.67 35.85 35.66 35.39 34.73 34.86 35.04 34.28 34.46
48.52 48.84 49.55 51.62 55.15 54.14 52.68 51.59 51.00 50.10 48.39 47.70 50.16 53.73 47.25 42.76 41.87 42.17 47.52 49.08 38.90 35.11 40.92 35.05 37.19 30.75 35.90 34.93 32.76 34.14 33.78 31.26 30.37 31.16 32.20 28.57 31.12 36.58 33.89 35.78 35.89 35.69 36.80 36.57 33.14 32.03 34.18 34.47 34.51 34.05 33.89 34.80 35.10 34.98
48.03 48.86 50.36 51.98 53.98 52.97 51.63 51.09 49.80 48.50 48.50 52.99 43.94 39.90 41.03 40.85 46.28 45.67 34.47 35.63 34.11 33.53 37.01 35.50 36.92 31.17 34.69 34.26 32.12 33.72 31.81 29.91 29.44 29.93 28.69 31.78 31.32 33.31 34.99 35.07 36.82 37.35 37.54 36.92 37.02 37.02 37.60 37.38 34.83 34.23 34.02 34.82 35.55 35.73
47.62 48.82 51.29 53.18 53.09 51.73 50.74 49.59 48.68 50.73 51.53 45.54 41.00 42.40 42.90 39.69 36.01 36.88 33.22 33.90 37.18 37.41 32.99 34.10 34.12 34.39 32.95 37.10 33.23 30.82 30.06 28.63 28.83 30.03 27.63 27.85 34.80 33.67 33.44 34.60 36.37 37.24 36.95 36.28 37.22 37.17 36.99 36.18 35.96 34.94 34.65 35.06 35.70 36.27
47.53 48.66 51.20 53.68 52.41 51.30 49.69 49.13 50.56 46.56 46.06 46.74 42.74 36.53 36.28 34.83 34.43 36.12 33.15 36.20 34.18 32.21 31.91 32.65 31.60 32.79 32.91 35.33 31.61 31.03 29.33 29.56 29.74 27.05 29.13 33.85 33.56 32.38 33.18 35.19 35.97 36.99 36.59 36.46 36.97 37.08 36.47 35.55 35.49 34.70 34.56 36.22 36.54 36.30
47.14 48.26 50.30 53.16 51.56 50.27 49.10 49.62 46.18 49.34 52.35 38.35 35.54 34.03 35.87 33.31 38.03 40.17 42.59 40.49 36.31 34.98 35.39 35.82 32.24 34.12 32.95 31.68 30.94 30.47 27.34 28.14 24.79 24.75 29.62 35.60 32.60 32.23 33.77 35.57 35.42 34.91 35.40 36.01 35.75 35.64 34.93 34.69 34.63 34.98 35.45 36.42 36.12 35.53
45.90 47.63 49.48 51.76 50.87 49.83 49.48 47.40 49.57 53.64 46.35 36.59 36.74 37.13 34.70 41.86 40.30 38.65 34.68 33.21 34.31 37.84 34.82 32.52 33.24 34.04 30.37 26.63 29.21 25.57 21.72 24.69 27.77 31.17 35.89 36.00 33.80 32.94 33.96 34.97 35.39 34.92 35.46 35.55 35.57 34.65 34.54 34.72 34.39 34.73 35.68 36.54 36.62 36.25
45.90 46.25 50.96 51.15 50.31 49.29 48.31 48.86 47.97 43.01 36.63 36.43 35.94 35.62 41.15 38.85 32.56 34.37 34.47 32.41 36.38 36.31 37.60 36.93 32.34 31.96 28.21 29.66 24.62 26.30 28.94 29.63 36.28 34.14 36.14 34.76 33.16 33.54 34.81 35.43 35.62 35.87 36.03 35.60 35.36 35.31 34.88 34.17 34.22 34.89 35.61 36.19 36.36 35.94
45.37 45.88 51.82 50.66 49.47 49.20 48.30 46.74 43.45 41.68 39.73 35.79 34.31 40.41 43.25 42.15 38.01 35.92 34.40 33.10 37.30 35.96 35.16 34.25 32.24 32.44 29.92 28.15 28.32 30.46 30.00 37.55 37.05 35.29 34.40 34.56 33.51 34.26 35.50 35.93 35.22 35.42 35.55 35.39 35.32 35.43 35.27 35.01 35.08 34.71 33.99 35.53 36.37 36.26
42.54 45.08 51.12 49.94 49.24 47.59 47.08 36.05 41.18 41.97 34.51 31.56 37.05 37.72 39.51 44.75 38.72 35.91 34.50 35.09 35.69 36.77 36.03 35.33 31.33 27.56 29.28 29.40 30.04 33.12 32.25 34.19 36.32 34.93 34.54 34.89 35.02 35.81 36.06 35.32 34.76 35.26 35.36 35.31 35.38 35.40 34.81 34.09 33.88 34.45 34.68 35.68 36.35 36.35
43.43 48.51 50.17 49.66 48.59 41.87 43.91 41.00 40.74 31.25 30.03 31.85 33.95 33.82 35.65 37.02 40.94 37.94 35.66 36.70 36.62 37.27 34.36 36.20 33.81 32.77 32.32 34.70 34.45 32.70 33.20 33.17 31.67 32.59 33.98 35.12 36.02 35.63 35.38 35.25 34.76 34.88 34.63 34.50 34.59 34.47 34.69 35.14 35.63 35.62 35.64 36.03 35.85 35.88
45.15 46.39 49.33 48.78 49.08 35.99 34.31 31.88 32.82 32.04 31.65 31.14 31.98 30.64 33.45 32.77 34.55 35.79 35.64 34.22 34.52 33.96 32.51 31.87 35.93 36.05 35.18 34.38 35.45 35.64 34.51 34.09 32.25 30.85 31.85 33.93 35.15 34.92 34.60 34.45 34.23 34.32 34.08 34.39 34.58 35.33 34.45 34.37 35.00 35.28 35.57 36.03 35.94 35.25
44.05 47.45 48.84 49.02 34.23 33.22 32.38 31.63 28.89 29.69 30.13 28.87 30.86 30.46 28.68 32.22 31.57 31.28 31.68 35.63 35.02 34.59 33.57 34.61 34.94 32.94 33.48 34.05 35.42 35.94 34.22 34.22 33.35 33.51 31.92 31.13 33.88 34.50 34.04 34.50 34.54 34.30 33.14 32.91 32.77 33.15 34.27 34.35 35.40 35.79 35.36 35.90 36.78 36.37
43.72 48.87 42.47 36.39 32.08 28.97 28.03 30.55 28.86 30.68 29.26 28.84 28.52 29.40 27.68 28.25 28.43 30.46 33.19 30.45 31.37 33.45 34.89 32.68 32.62 31.01 31.20 31.87 33.36 34.44 34.25 35.14 35.69 35.38 35.40 34.66 32.03 32.45 32.63 33.11 32.57 32.25 33.20 33.32 33.84 33.53 34.29 35.45 35.36 35.28 35.09 36.05 35.79 36.12
47.95 39.67 32.78 31.21 26.22 26.56 25.50 31.26 27.80 29.30 25.86 26.61 27.70 25.96 25.53 26.19 28.61 31.24 29.93 32.69 33.56 33.50 32.61 33.02 31.97 33.21 32.97 33.41 33.60 33.18 34.69 35.20 34.13 33.53 33.27 33.88 33.69 33.56 32.73 32.59 33.48 32.34 32.47 33.49 34.87 34.58 34.21 35.11 33.94 34.88 35.39 35.64 35.92 35.37
38.19 31.77 26.88 25.53 25.93 22.78 27.40 25.32 28.66 26.87 27.12 25.39 23.90 21.52 23.57 25.02 27.97 26.27 28.16 29.61 31.82 32.00 31.44 30.14 31.25 29.96 31.04 31.45 30.73 32.32 34.40 35.44 33.46 32.76 34.02 32.24 31.16 31.58 32.59 32.94 33.85 34.62 34.92 34.63 33.84 33.68 34.09 34.06 35.27 34.62 34.95 35.00 35.10 34.71
28.49 23.38 24.15 20.69 25.25 23.42 22.64 24.00 25.37 25.72 21.65 23.32 22.00 21.37 22.91 26.89 24.31 24.41 25.05 29.21 29.25 29.81 30.51 30.80 30.84 31.12 29.86 30.25 31.13 32.32 34.67 33.83 31.97 31.46 32.66 33.63 32.55 32.08 32.08 33.09 33.92 34.78 35.47 33.83 33.05 33.49 33.81 34.56 34.50 34.51 34.38 34.61 34.51 34.20
18.71 21.80 22.15 21.94 22.54 23.89 23.97 21.55 23.61 23.82 22.75 21.43 21.85 24.54 25.72 23.88 21.52 24.40 28.70 28.06 29.63 30.09 29.63 29.63 29.72 29.98 30.11 31.41 30.26 30.80 32.49 35.12 33.97 30.93 32.13 33.66 32.41 31.49 30.65 30.14 30.28 31.17 34.97 35.72 34.47 33.54 33.48 33.79 33.77 33.57 33.66 34.34 34.92 34.39
17.74 20.06 24.90 29.21 27.06 26.24 24.78 25.96 28.27 25.27 21.80 20.40 22.17 22.83 22.83 21.01 23.87 26.31 29.87 31.95 31.44 32.64 32.95 33.28 32.87 32.27 31.24 31.12 32.15 33.57 34.33 35.09 33.96 32.98 33.83 34.26 35.15 35.59 34.21 32.04 30.99 33.99 34.57 35.03 35.35 34.85 34.02 33.67 33.67 33.69 34.02 34.75 35.37 35.14
21.76 23.76 20.59 24.79 25.26 26.78 23.94 25.72 24.61 26.30 24.20 26.06 25.64 21.32 21.29 23.18 25.82 27.91 30.85 33.88 34.70 33.50 33.01 33.60 34.40 34.30 33.03 32.61 32.89 33.42 34.03 33.60 33.00 32.37 32.73 32.93 34.18 35.14 35.69 36.01 36.52 35.73 34.96 35.14 35.29 35.68 35.74 35.35 34.75 34.49 34.26 34.04 34.63 35.55
24.46 27.51 27.51 23.50 24.00 24.80 24.83 25.05 25.84 26.79 28.45 28.28 27.27 24.40 24.14 26.23 30.12 30.55 32.56 33.84 33.61 32.60 31.33 31.67 31.79 33.15 32.62 32.07 32.33 31.76 31.40 31.35 29.61 27.37 27.37 26.71 28.03 29.78 33.52 34.58 34.29 35.25 35.21 34.76 36.27 36.34 35.93 35.98 35.78 35.38 34.99 34.87 35.72 35.39
24.22 26.89 21.92 20.73 20.06 19.49 21.39 26.26 25.47 28.42 29.17 26.91 25.67 26.09 26.88 28.73 31.92 33.99 32.02 31.55 31.10 31.45 32.52 32.28 31.38 30.20 28.68 28.65 28.21 29.51 32.96 34.20 33.75 32.15 29.29 28.76 30.15 32.10 32.73 33.81 34.66 35.06 35.78 35.52 34.75 34.68 36.09 35.24 34.62 34.29 34.17 34.12 34.30 33.55
25.75 24.01 21.16 21.62 20.97 23.83 25.56 27.48 28.51 28.83 28.81 28.24 29.24 26.83 25.91 27.46 29.54 31.31 31.43 32.72 33.18 32.83 31.39 30.13 30.86 31.27 30.23 29.43 29.04 28.97 29.09 32.35 34.23 34.25 34.50 34.40 34.28 32.44 33.03 34.12 34.97 34.68 35.21 35.63 35.16 34.40 34.35 34.03 33.82 33.10 32.57 32.73 33.30 33.61
24.60 22.03 21.61 19.83 21.69 26.65 28.79 25.93 25.45 25.02 25.77 25.15 24.70 26.73 27.24 26.51 24.06 28.60 31.98 33.10 31.68 30.10 31.89 31.57 30.07 29.73 31.89 32.55 33.10 33.65 33.97 30.99 31.71 32.84 33.45 33.12 33.17 33.53 33.84 34.05 33.78 34.05 34.15 34.10 34.41 34.71 34.65 33.97 33.55 33.13 32.75 32.89 33.35 33.22
23.16 23.56 23.99 23.61 23.54 23.36 25.54 24.62 23.60 22.33 23.54 23.86 24.69 26.15 25.72 24.63 22.38 26.15 29.93 34.17 32.74 32.10 31.40 31.85 32.17 32.47 32.83 32.92 33.11 33.48 33.49 32.30 32.77 34.75 35.38 35.13 34.40 33.67 32.54 32.36 32.53 32.85 32.94 32.98 33.06 33.31 33.58 33.70 33.38 33.14 33.29 33.44 33.48 33.40

GFSWCAN_sfc_wetblb_240.txt.gz
Wetbulb
48.28 49.74 51.29 53.24 54.11 56.31 59.32 58.87 58.51 57.99 56.75 55.15 54.08 53.55 53.89 54.22 52.70 53.14 47.34 50.49 49.57 40.63 37.33 40.13 39.15 40.66 42.21 42.30 38.03 36.43 35.59 35.51 35.75 34.39 37.47 31.19 30.85 29.02 26.81 29.11 25.59 25.63 24.79 24.86 21.90 17.72 19.60 30.79 29.18 20.93 26.07 29.74 30.83 30.90
47.78 49.03 50.23 52.16 53.39 55.37 58.63 58.57 58.25 57.57 56.24 54.48 53.96 54.81 54.28 53.02 52.13 52.57 44.56 45.64 45.52 40.18 37.12 40.42 39.89 40.15 39.02 39.29 39.44 37.90 40.02 37.38 38.97 36.73 33.92 32.46 28.58 28.19 28.72 26.36 27.50 24.12 27.92 27.93 26.17 23.99 29.45 30.46 30.06 32.42 32.07 29.83 30.52 31.18
47.50 48.49 49.36 51.07 52.49 53.96 57.16 58.37 58.04 57.00 55.19 53.85 53.60 53.63 52.61 51.91 51.44 50.63 45.67 46.46 44.54 39.03 37.45 39.05 36.28 40.02 41.91 41.66 41.96 39.45 38.59 39.46 37.57 37.91 39.25 35.77 30.79 30.88 27.80 27.95 27.75 28.97 29.66 24.19 25.62 27.89 28.93 30.67 31.70 32.02 32.61 31.58 33.24 33.73
47.32 48.08 48.55 50.55 51.72 52.73 55.16 58.27 57.85 56.67 54.77 53.95 53.55 53.36 52.08 50.69 50.95 50.72 46.67 47.75 49.03 46.17 36.36 33.35 41.50 37.94 42.37 42.03 41.33 41.44 39.01 39.77 40.35 41.02 34.97 35.61 33.67 30.77 28.93 28.56 27.25 28.43 28.41 27.42 27.16 28.71 29.71 29.91 31.88 32.31 33.25 33.94 34.23 33.46
47.29 47.82 48.21 49.69 51.14 52.16 53.76 57.90 57.41 56.08 54.53 53.85 53.42 53.04 51.23 50.70 51.13 49.24 47.85 47.15 48.77 45.77 35.01 32.64 37.71 39.43 41.28 41.17 40.68 41.20 40.33 39.09 38.64 37.93 35.30 31.95 29.24 28.95 28.48 26.75 25.99 30.24 28.99 26.06 25.57 30.57 29.68 29.16 32.40 33.94 32.57 33.22 32.81 32.04
47.08 47.68 48.01 49.05 51.19 51.45 52.54 56.97 56.23 55.03 53.89 53.23 52.73 51.81 50.35 50.82 50.76 53.04 41.14 46.68 47.96 45.94 37.26 33.09 36.41 36.34 38.81 39.42 38.30 37.42 37.82 37.33 37.99 36.54 30.96 29.57 30.88 29.44 28.97 26.29 31.25 32.50 33.30 33.78 29.67 32.81 32.18 32.57 33.75 34.26 32.88 33.07 33.50 32.93
47.15 47.41 47.84 49.34 50.79 50.98 52.65 55.93 55.06 54.13 53.38 52.74 52.17 50.23 50.16 50.16 47.99 48.50 46.87 45.95 48.44 46.81 34.81 31.79 29.68 34.91 36.93 37.70 36.56 36.46 37.23 35.34 35.75 33.02 31.31 30.82 29.37 30.23 29.26 25.33 30.67 31.99 32.64 33.26 33.53 32.74 29.41 31.98 30.98 34.30 33.68 33.62 34.87 34.27
47.54 47.59 48.40 50.07 50.32 51.55 53.33 55.33 54.13 53.25 52.95 52.31 50.98 49.89 49.11 47.18 43.96 44.21 41.95 44.47 48.09 42.05 39.46 31.89 28.23 30.98 35.40 32.98 30.48 34.41 34.69 35.69 32.18 31.12 29.76 29.17 27.43 27.21 23.93 31.31 31.77 32.22 32.93 32.43 32.28 32.54 32.55 33.34 33.83 33.29 32.80 33.24 32.09 31.78
47.52 48.29 49.04 49.97 50.69 51.85 53.35 54.68 53.43 52.65 51.84 50.71 49.24 47.70 46.51 47.49 45.70 41.73 44.34 45.00 48.69 42.47 32.61 34.28 29.77 29.32 34.81 32.01 32.58 32.64 33.06 30.18 30.34 31.18 28.19 27.37 27.78 23.25 29.49 31.79 31.25 32.28 31.71 31.81 32.42 32.50 32.58 32.18 32.23 31.38 29.82 31.24 30.65 30.85
48.20 48.35 49.22 49.72 50.75 51.20 53.48 53.85 52.63 51.19 49.78 48.59 46.65 48.45 41.79 42.33 43.10 44.55 47.51 44.30 36.40 33.90 38.03 33.78 33.57 27.32 33.79 33.39 32.02 31.75 32.85 29.88 27.46 26.11 28.05 25.11 26.64 33.26 32.11 33.78 33.45 33.62 33.72 33.78 29.99 29.01 30.90 30.84 30.51 30.31 29.83 31.40 31.75 31.68
48.46 48.44 48.94 49.23 49.37 50.53 53.55 52.91 51.19 49.24 47.89 48.42 46.38 40.21 40.25 41.69 44.59 43.40 33.46 35.26 32.67 32.67 35.96 35.09 32.59 28.07 33.15 31.60 30.10 32.10 30.09 27.89 24.86 26.60 25.37 27.46 26.13 29.29 32.43 32.38 33.98 34.25 34.30 33.54 33.00 32.82 33.59 33.42 31.45 31.17 31.16 31.83 32.52 32.53
47.41 47.78 48.23 48.73 49.36 50.49 53.00 51.23 49.16 47.03 46.98 46.88 40.75 42.29 42.37 37.99 34.77 36.74 33.83 32.72 35.17 34.12 31.17 31.45 31.65 31.90 30.89 35.82 30.18 28.02 27.64 25.86 24.80 26.71 23.34 23.69 30.52 31.07 32.37 32.31 33.63 34.15 34.25 33.62 34.05 34.00 34.00 33.43 32.66 31.67 30.95 31.78 32.43 32.95
46.79 47.11 47.92 48.68 48.71 50.44 52.20 50.17 48.84 48.29 46.34 45.58 41.52 35.95 34.79 34.55 34.39 34.97 32.47 32.73 29.36 31.09 30.56 30.58 29.07 29.94 31.38 34.32 29.83 29.17 25.12 25.78 27.15 23.47 25.03 29.64 29.60 30.62 31.57 33.55 33.66 33.97 33.89 33.66 34.24 34.53 33.91 33.16 33.23 32.17 31.76 32.94 32.73 33.12
46.29 46.63 47.11 48.36 49.03 51.39 51.22 49.08 48.47 48.47 49.92 37.63 35.41 33.92 35.58 33.45 36.17 37.71 39.11 37.58 34.04 32.76 32.74 33.11 30.71 31.69 31.22 30.50 29.98 25.62 24.63 25.90 21.71 21.06 25.48 30.53 29.58 30.49 32.33 34.14 33.52 32.56 32.79 33.40 33.61 33.49 32.69 31.98 31.46 32.48 32.45 33.12 32.93 32.49
45.85 45.80 46.19 46.85 48.47 51.29 50.41 49.49 48.49 50.15 43.67 36.24 36.07 36.80 34.93 38.91 37.99 36.54 34.74 33.68 34.14 36.98 33.42 31.72 32.62 32.45 28.66 25.03 27.38 23.32 18.56 19.71 24.19 26.94 31.11 32.09 31.25 31.32 32.29 33.43 32.99 32.39 32.98 33.08 32.78 31.93 31.45 31.67 30.89 31.30 32.17 33.02 33.29 33.35
44.84 45.07 44.09 46.16 48.03 50.45 49.70 48.96 48.16 43.89 35.62 35.89 36.18 36.62 40.35 36.53 32.50 33.53 33.56 32.99 37.23 35.97 36.14 34.59 30.19 27.66 24.16 26.09 21.40 23.52 25.02 25.80 29.67 30.29 31.62 32.32 30.93 31.47 32.67 33.62 33.43 32.71 33.05 32.40 31.83 31.56 31.61 31.04 30.87 31.46 32.23 32.59 32.91 33.02
43.89 42.05 46.65 47.13 47.96 50.03 49.32 46.95 44.77 45.52 45.59 37.45 34.61 40.63 42.51 38.33 36.79 34.59 35.33 34.94 38.26 35.72 32.33 31.88 28.31 27.28 28.67 24.60 24.15 28.62 28.52 33.22 33.30 30.55 32.84 32.44 31.06 32.05 33.48 33.78 33.39 33.25 33.27 32.15 31.29 31.36 31.06 32.11 31.94 31.32 30.38 32.14 33.04 33.34
40.90 43.25 44.77 45.91 48.33 48.99 46.70 44.04 41.87 45.68 46.68 35.68 38.54 39.71 42.81 42.76 37.69 34.45 33.83 36.82 36.34 35.24 34.28 32.85 30.05 24.76 25.59 25.34 27.54 31.05 30.40 31.29 32.43 32.01 32.54 32.35 32.66 33.82 34.31 33.38 33.54 33.83 32.84 32.05 31.82 31.19 30.88 30.36 29.73 29.67 31.03 32.19 32.61 32.43
42.36 43.21 44.02 44.57 47.20 42.15 45.16 44.81 42.91 41.60 32.54 33.50 39.17 36.84 39.13 39.24 39.49 36.83 35.99 37.82 35.93 37.15 34.00 32.91 30.26 29.64 29.58 32.47 33.20 31.72 31.79 30.32 29.99 29.62 31.18 32.73 33.85 33.80 33.86 33.54 33.70 33.15 32.43 31.77 31.20 31.21 30.76 30.75 30.59 31.05 31.42 31.87 31.16 30.74
44.92 44.90 44.00 44.19 45.75 36.27 32.67 32.72 32.97 33.03 32.97 33.52 35.09 35.31 36.44 35.50 34.99 34.84 35.92 32.97 33.62 33.08 29.42 29.83 32.86 33.87 34.83 34.97 34.87 35.73 33.80 32.90 31.47 29.50 29.44 31.67 33.72 33.64 32.95 32.76 32.98 32.99 32.22 30.58 30.90 33.41 29.96 29.67 30.16 30.68 31.04 31.81 31.23 30.09
42.53 41.93 42.94 42.95 35.51 34.90 33.16 32.05 31.74 32.32 31.59 30.58 32.58 33.19 31.33 34.09 32.72 32.89 32.66 33.46 32.44 31.39 31.47 33.25 34.07 31.36 33.34 34.21 36.86 36.03 33.83 33.60 32.02 31.38 30.65 30.62 33.15 33.32 32.36 32.73 33.04 32.34 30.78 30.20 29.33 29.81 31.11 28.99 29.97 30.58 30.73 31.18 31.94 31.45
39.34 42.69 37.68 40.08 32.12 30.38 29.32 31.16 30.12 30.99 30.46 30.83 29.35 30.90 30.31 30.74 30.16 32.51 33.33 30.37 30.84 31.83 33.66 32.97 32.09 31.49 32.37 33.38 34.24 35.18 34.74 34.63 33.74 34.74 35.83 35.18 31.20 31.20 31.24 32.02 30.90 29.53 29.43 29.35 29.58 29.53 29.02 29.69 30.32 30.39 30.05 31.21 33.35 31.58
41.49 39.67 33.21 31.53 27.33 27.26 25.52 31.22 28.08 29.99 26.82 28.68 28.99 28.00 26.96 27.42 30.23 33.16 29.42 31.19 31.34 32.67 32.62 32.67 31.45 33.19 33.41 33.75 34.10 34.15 35.08 34.23 33.08 32.67 33.16 32.66 32.81 32.84 32.30 31.57 31.47 29.89 28.77 28.48 29.67 30.56 29.15 32.92 32.92 29.82 30.81 31.59 31.13 30.17
41.11 32.34 30.53 27.09 26.88 23.40 27.55 25.69 28.83 27.24 27.51 26.35 24.50 22.32 24.74 25.87 29.82 27.34 27.19 29.00 30.10 31.28 31.32 30.74 32.11 30.47 31.11 31.34 31.15 32.33 33.83 34.64 33.12 32.96 33.45 32.43 31.21 31.04 31.59 31.36 31.55 31.57 31.53 31.22 29.94 29.55 29.54 28.84 32.62 30.42 30.41 30.39 30.54 29.86
29.16 26.88 25.64 21.50 25.86 23.86 22.87 23.94 26.00 26.85 22.45 23.76 22.28 21.54 23.34 26.66 25.45 25.64 28.86 28.50 28.45 29.67 29.91 31.99 32.08 32.39 30.84 30.22 31.12 32.52 34.92 34.19 32.25 31.22 33.00 33.42 31.74 30.49 30.00 30.47 30.70 31.43 32.07 29.95 28.57 28.98 28.65 29.68 30.47 29.93 30.07 30.06 29.98 29.95
24.76 23.77 22.15 22.24 22.93 24.33 24.02 22.37 25.23 25.11 23.31 22.29 22.33 24.68 25.79 24.57 26.14 30.00 35.30 29.57 29.95 30.45 30.33 31.13 31.24 31.48 31.52 32.46 30.75 31.48 32.72 34.53 33.63 31.03 32.12 33.12 31.88 30.72 29.15 28.45 28.06 28.00 31.89 31.60 30.79 29.79 29.49 29.71 29.21 29.37 29.39 31.40 34.70 30.59
18.15 19.28 24.63 29.90 28.56 27.94 26.47 28.23 29.78 26.99 23.23 20.80 22.42 23.22 23.82 26.71 29.03 28.36 31.15 33.66 31.90 33.01 33.89 34.79 35.20 35.25 33.56 32.03 33.03 33.93 34.39 34.93 33.89 32.86 34.11 33.88 33.81 33.83 32.33 29.71 28.32 30.05 31.85 32.05 31.82 31.33 30.35 29.78 29.16 29.19 29.32 30.01 30.53 30.51
23.79 24.53 21.40 24.63 26.97 27.27 25.38 27.75 27.59 27.27 24.42 25.53 25.53 20.88 24.65 27.88 28.01 27.65 29.99 34.16 35.65 34.80 34.52 35.22 36.29 36.77 34.81 33.97 33.94 33.59 33.79 33.98 33.33 33.35 33.23 32.86 33.53 33.32 32.44 32.55 33.05 35.28 32.76 32.52 31.89 31.57 31.14 30.59 29.83 29.57 29.85 29.78 30.30 31.19
24.01 27.10 28.48 24.73 24.29 25.33 25.21 26.22 27.44 27.56 28.32 28.29 31.53 24.40 24.26 26.04 28.16 28.07 30.83 35.37 36.08 34.79 32.84 31.82 31.63 33.68 33.23 33.53 33.89 34.21 33.33 32.06 29.79 26.97 26.90 26.85 27.87 28.09 32.67 33.06 32.41 32.30 32.24 32.49 36.29 33.93 31.66 31.22 30.63 30.51 30.73 30.58 31.04 31.06
25.91 28.50 25.25 22.76 21.42 20.65 22.55 25.94 25.64 26.87 25.84 26.11 25.74 25.75 26.58 27.40 28.98 31.27 34.28 33.69 33.03 33.20 33.66 33.65 32.41 31.97 30.55 30.45 30.30 31.08 32.51 33.65 32.98 31.15 27.61 26.84 28.36 31.05 31.67 31.23 31.10 31.27 31.86 31.89 31.83 33.07 38.46 34.12 35.26 31.46 30.70 30.50 30.32 29.58
25.79 25.11 22.84 22.49 21.31 23.67 25.27 28.00 28.94 28.71 27.58 27.57 28.15 26.22 24.49 25.59 27.66 29.32 31.11 33.29 33.78 33.80 32.91 30.92 31.16 31.92 30.87 30.04 29.16 28.52 28.27 32.38 33.03 33.46 33.55 32.74 30.88 31.21 31.38 32.03 32.45 32.16 31.67 31.39 31.48 31.75 31.78 30.28 29.83 29.61 29.68 29.64 30.03 30.15
24.86 22.84 21.71 19.57 21.37 26.50 27.08 25.14 25.68 25.49 25.14 25.13 24.24 25.43 25.83 25.23 23.46 26.58 28.72 31.64 31.54 31.01 32.49 31.65 30.08 29.56 31.81 32.17 32.90 33.37 34.49 33.24 33.20 33.02 31.77 30.74 31.18 31.92 32.59 32.84 33.13 33.48 32.35 31.63 31.36 31.47 31.00 30.50 30.20 29.54 29.30 29.28 29.64 29.83
24.65 24.28 24.38 23.84 23.35 23.18 24.67 23.97 22.95 22.30 23.72 24.11 24.78 23.97 23.91 24.06 22.53 26.55 29.47 30.52 31.61 31.47 30.76 31.54 31.94 32.13 32.47 32.87 32.49 33.04 34.23 33.27 34.10 35.76 35.20 35.01 34.70 34.11 32.84 32.54 32.70 32.70 31.78 31.63 31.47 31.37 30.58 30.10 30.24 29.78 29.53 29.42 29.54 29.77

GFSWCAN_sfc_wetblb_243.txt.gz
Wetbulb
47.62 47.66 48.23 49.07 50.70 52.33 54.19 55.61 58.80 58.84 57.93 56.88 56.12 54.73 53.73 53.74 53.82 46.35 41.19 43.35 41.24 31.71 31.65 35.88 36.14 35.08 37.20 33.28 27.96 30.57 30.78 29.96 27.93 30.23 27.05 25.25 24.79 25.35 23.39 25.15 23.59 22.90 18.90 17.25 16.58 11.15 18.49 28.78 27.14 20.56 23.55 26.27 28.11 28.36
47.22 47.71 47.56 48.55 49.51 50.95 53.32 54.71 56.17 58.38 57.64 56.63 55.60 54.24 53.68 54.39 53.91 47.60 39.27 41.18 41.15 34.70 31.94 36.50 36.63 36.61 35.96 35.52 33.38 32.14 35.25 31.93 33.94 29.48 26.41 25.63 24.79 23.21 24.73 22.50 24.31 22.15 25.14 23.68 24.22 24.11 27.00 27.84 27.69 29.75 29.71 27.78 27.94 28.45
46.90 47.21 47.36 48.05 49.07 49.98 52.29 53.76 54.96 57.91 56.89 55.67 54.39 53.90 55.01 54.61 53.09 46.68 39.41 40.15 38.70 32.55 31.65 32.71 32.18 36.74 38.13 37.57 38.06 33.52 32.80 36.45 33.97 35.74 31.29 27.34 24.58 25.52 21.07 23.45 22.74 24.64 26.64 21.73 23.74 24.67 26.43 28.20 29.46 30.39 30.74 29.80 31.05 30.09
46.43 46.85 47.30 47.67 48.50 49.21 51.14 52.84 54.75 57.39 56.72 55.29 54.22 54.27 54.08 53.07 51.08 47.81 41.01 41.81 42.12 37.09 29.12 28.86 37.68 33.87 38.84 37.49 37.87 37.80 36.67 38.16 37.70 32.36 31.54 30.68 24.70 26.81 24.33 26.80 24.93 25.39 26.13 24.36 24.29 24.39 27.52 27.44 29.14 30.44 31.75 32.76 31.07 31.18
46.55 46.96 47.18 47.51 47.95 48.83 49.79 52.26 53.91 56.70 56.27 54.97 54.23 53.59 52.88 51.00 51.28 45.36 42.66 42.47 44.53 41.33 26.90 27.47 32.95 35.68 36.80 37.39 37.26 38.38 37.77 35.42 33.60 29.94 27.48 22.44 24.99 24.99 23.19 22.83 22.16 26.39 26.07 24.08 24.28 27.77 26.70 26.00 29.69 32.46 31.74 30.91 30.14 29.69
46.35 47.13 47.34 47.28 47.71 48.45 49.06 51.87 52.74 55.47 55.37 54.21 53.73 52.89 51.07 51.08 50.10 45.32 36.33 42.32 42.22 39.24 31.21 25.44 31.55 31.90 35.10 36.31 35.43 35.10 35.27 33.40 29.35 27.38 23.42 24.21 26.71 26.28 18.68 20.53 28.49 28.71 29.89 30.75 27.93 30.13 29.65 30.13 31.76 33.01 31.50 31.03 31.09 30.70
45.44 46.32 46.95 47.78 47.43 47.96 48.71 51.47 51.82 54.70 55.02 53.78 53.10 51.93 50.87 50.73 43.50 45.70 40.20 42.30 45.92 39.81 30.87 26.21 23.54 31.25 32.80 34.69 32.58 32.53 32.82 28.02 29.57 24.28 25.84 24.78 24.94 26.30 20.39 21.53 29.00 29.53 30.14 30.82 31.67 31.49 28.12 30.02 29.33 32.73 32.18 32.13 32.92 31.68
44.95 45.98 46.41 47.46 47.79 47.86 48.96 51.24 51.76 54.60 54.43 53.22 52.26 50.68 49.31 47.06 44.72 38.98 39.85 45.68 43.40 36.96 33.97 23.57 18.77 25.80 30.77 29.09 26.38 29.87 26.91 26.43 26.19 23.84 24.46 25.05 22.78 22.47 18.72 28.01 27.86 29.51 30.31 30.01 29.86 29.49 29.96 31.01 31.77 31.35 31.70 31.32 29.95 29.47
44.56 45.93 47.87 47.46 47.92 48.18 50.11 51.00 51.99 54.56 53.68 51.70 49.92 47.82 44.88 43.60 37.53 37.20 45.34 46.18 42.90 37.85 28.81 24.57 23.23 22.57 30.71 26.70 26.80 28.84 29.05 21.39 25.68 22.85 23.44 24.28 19.47 18.51 25.86 27.99 29.33 30.43 29.52 29.11 29.95 30.79 30.84 30.25 29.83 29.75 29.37 29.37 28.49 28.74
44.12 45.25 48.34 47.89 48.22 49.05 50.39 50.75 52.22 53.38 50.90 48.85 45.25 44.15 35.03 39.05 46.15 46.88 42.43 38.59 34.00 33.18 33.35 26.00 26.63 22.49 28.79 28.36 24.88 24.33 24.02 21.87 18.60 22.96 24.07 17.67 21.43 28.60 30.71 31.43 31.72 31.63 31.25 31.65 28.78 27.51 28.52 27.90 27.85 27.85 28.36 29.52 29.73 29.70
43.68 44.63 48.33 48.42 49.10 49.84 50.63 50.47 52.59 50.68 47.86 43.20 39.04 36.39 35.91 44.26 42.19 38.97 33.09 33.61 32.00 27.04 28.80 28.63 25.83 24.48 29.76 27.14 24.24 24.98 21.44 17.81 17.24 22.70 19.88 20.55 22.38 26.00 30.07 30.04 31.97 31.85 32.80 32.37 31.54 31.39 31.83 30.94 28.75 28.52 29.17 30.34 30.69 30.57
43.36 46.25 48.35 49.05 49.53 49.24 49.47 49.89 50.79 46.89 44.00 44.68 38.83 40.43 39.24 36.41 33.98 36.45 34.21 32.47 33.07 31.61 27.36 27.03 27.94 28.28 27.02 29.89 25.34 22.68 21.73 21.68 19.24 23.16 17.28 19.96 25.28 28.66 28.94 29.78 31.33 31.51 32.47 31.26 31.49 31.89 31.77 30.72 29.96 29.29 29.23 30.22 30.79 31.22
43.44 46.14 47.96 48.36 48.64 48.75 48.62 49.88 49.65 49.45 44.76 43.70 39.81 35.22 33.91 33.81 34.32 34.71 32.07 31.94 25.72 27.67 27.41 27.38 26.36 27.69 28.63 27.76 24.05 24.76 20.97 21.61 24.37 16.77 19.33 23.73 27.29 28.31 28.66 31.03 31.00 32.32 33.16 31.28 31.41 31.75 31.91 30.71 30.88 30.63 30.47 31.03 31.25 31.21
43.45 44.95 47.22 48.14 48.06 48.87 48.16 49.57 49.97 46.74 45.44 36.30 35.18 32.31 35.15 33.34 33.82 35.38 36.71 33.93 32.00 29.45 29.96 28.58 27.35 27.95 27.27 24.64 23.06 20.77 18.54 21.07 15.08 16.48 22.87 26.74 26.05 28.98 29.95 32.12 31.79 31.27 31.90 31.73 31.43 31.69 30.95 30.25 29.68 30.76 31.28 31.46 31.28 30.64
43.18 44.11 46.64 46.82 46.71 48.06 48.54 49.34 49.85 48.00 42.17 39.43 36.31 35.95 33.91 32.43 30.13 33.33 32.95 31.67 31.22 34.61 31.26 29.21 28.16 26.71 20.15 21.48 21.08 19.19 15.64 14.74 18.91 23.99 26.43 28.29 28.69 29.57 30.44 31.73 31.50 30.83 31.77 31.68 31.41 30.94 30.17 29.65 29.27 29.21 30.53 31.35 31.51 31.17
42.96 43.56 44.26 45.82 46.16 46.88 47.57 48.39 48.53 45.73 36.40 37.15 38.89 35.03 35.52 32.69 24.79 29.18 30.97 31.34 35.65 34.77 32.43 30.96 24.73 21.27 16.71 21.64 18.18 22.22 22.45 22.45 26.67 27.15 29.38 29.32 29.34 30.45 31.49 31.89 31.57 31.95 32.29 31.46 31.43 30.76 30.31 29.51 29.35 29.52 30.63 30.95 31.28 30.88
42.25 40.85 45.09 44.99 46.19 47.39 47.61 46.72 44.70 46.28 44.18 45.12 36.46 34.04 35.71 36.92 34.65 30.48 33.44 33.83 37.77 35.39 32.14 28.32 25.03 25.39 23.42 17.52 19.69 25.60 26.46 31.65 32.14 28.54 30.46 31.35 30.24 31.23 32.27 31.48 31.27 32.01 31.56 30.98 30.15 29.94 29.83 29.85 30.01 29.54 28.96 30.32 31.31 31.45
38.62 41.86 44.19 44.51 44.26 44.24 45.09 42.46 40.68 39.79 34.95 36.57 35.43 37.58 31.92 39.17 34.81 32.30 32.16 37.04 37.14 33.58 31.87 30.38 26.99 19.43 22.11 23.17 24.19 29.04 29.97 28.39 28.78 30.62 30.08 30.04 30.99 32.37 32.75 31.54 32.36 32.68 31.33 30.66 30.48 29.95 29.62 29.56 28.92 28.32 29.34 30.63 31.05 30.25
39.99 41.87 43.91 43.95 42.53 37.05 40.65 42.68 41.28 32.67 34.43 33.02 35.29 36.97 35.86 34.03 40.08 36.79 36.64 38.30 34.14 34.72 32.76 28.51 25.42 24.92 27.07 28.99 31.11 29.94 29.49 26.96 27.96 26.61 26.71 30.10 32.02 32.40 32.15 32.54 32.65 31.91 30.75 30.24 29.87 30.23 30.32 29.96 29.56 29.32 29.98 30.24 29.42 28.21
42.35 43.14 43.97 44.58 41.67 33.00 31.63 31.43 32.76 33.45 32.26 33.08 35.83 34.63 35.67 32.97 34.19 35.72 36.95 32.54 33.45 33.12 29.86 25.64 28.60 31.02 32.82 33.46 34.96 36.28 33.18 31.32 30.80 27.80 26.78 29.12 31.95 31.72 31.86 32.40 32.15 31.66 31.13 30.29 29.96 32.03 29.17 27.80 28.20 29.70 30.21 30.23 29.46 27.74
40.73 41.19 43.21 41.81 33.58 32.09 31.75 31.79 32.27 33.52 32.49 32.53 32.80 33.69 31.90 33.18 33.47 33.81 32.73 30.57 32.01 32.35 28.03 29.58 30.09 30.81 33.12 34.01 36.27 35.67 33.07 34.11 32.92 31.89 29.90 28.67 31.49 31.99 31.96 32.71 32.36 32.10 31.09 30.42 29.94 29.68 31.11 29.11 29.05 29.61 30.84 30.13 29.71 28.60
38.86 42.88 35.65 37.61 31.75 31.48 29.57 31.75 31.69 31.81 32.48 31.79 31.30 32.44 31.19 31.00 31.15 32.93 30.48 28.67 30.03 30.24 31.23 31.94 31.70 30.96 33.01 34.01 34.45 35.67 34.87 33.15 31.10 34.23 35.35 34.59 30.33 30.21 30.85 31.58 31.31 30.29 30.21 30.06 30.13 30.29 29.34 28.80 29.01 29.05 28.89 29.50 31.48 29.18
41.51 39.58 33.07 31.88 28.76 27.22 27.69 30.68 28.73 30.79 28.70 31.19 31.12 30.14 27.75 28.97 30.57 33.15 29.92 29.13 30.26 32.39 32.45 30.68 31.08 33.43 34.16 34.49 34.43 33.63 34.22 33.64 32.28 32.44 33.08 32.75 32.30 32.44 32.22 31.91 31.96 29.70 28.59 28.81 30.77 30.09 28.94 31.84 32.68 28.84 29.51 30.17 29.00 28.47
40.41 32.17 29.68 27.82 26.98 24.13 27.67 24.94 28.77 27.80 28.35 28.40 27.20 23.99 25.53 26.98 31.22 27.97 27.38 27.72 29.51 30.40 29.64 31.05 32.92 31.67 32.11 32.08 32.12 32.95 34.09 34.82 33.12 33.11 33.24 31.54 30.22 30.48 31.82 31.23 30.82 31.07 31.24 30.44 30.13 29.19 29.81 29.99 32.69 29.99 29.90 29.45 28.71 28.14
28.35 26.30 27.10 22.21 25.99 22.88 22.16 22.92 24.48 26.31 23.62 24.71 23.20 21.95 23.69 27.90 25.86 25.76 25.79 25.91 27.64 29.71 30.83 32.70 33.62 34.73 33.29 32.62 32.81 33.30 35.07 34.12 32.50 31.03 31.72 32.64 31.60 30.67 29.56 29.60 30.13 30.75 31.34 29.43 28.40 28.76 28.19 29.59 29.28 29.35 29.41 29.45 28.73 28.20
24.35 26.15 23.91 22.55 22.16 23.02 23.12 21.89 23.69 23.50 23.72 23.08 23.43 24.94 25.19 25.82 26.03 29.04 32.42 28.30 32.01 31.59 31.20 32.70 33.02 30.89 33.99 34.51 31.85 31.82 32.99 35.25 33.94 31.16 31.79 33.33 32.17 30.45 28.44 27.15 26.85 27.04 31.75 31.93 30.06 28.87 28.36 29.02 28.80 28.64 29.01 30.86 33.64 28.98
23.84 21.55 23.87 28.12 27.15 27.53 26.72 28.92 28.12 25.87 23.05 21.19 22.28 21.79 24.61 29.25 30.38 30.02 30.99 34.07 33.62 35.48 35.38 37.44 38.31 37.39 35.45 33.87 34.07 35.58 35.20 35.16 33.36 33.87 34.53 34.44 34.03 34.01 32.43 29.85 28.87 30.29 31.99 31.50 31.18 30.11 29.12 28.79 29.06 29.34 29.14 29.14 30.00 29.22
24.07 22.60 21.23 23.68 25.88 28.26 27.18 29.66 28.92 27.48 24.60 24.59 25.40 23.42 30.66 31.62 32.94 28.58 29.98 31.32 37.46 36.11 35.86 36.74 39.08 40.12 38.00 36.29 35.64 34.27 33.70 33.36 33.08 33.39 33.36 33.22 33.85 34.08 33.92 33.25 33.23 34.29 32.13 31.98 31.41 31.10 30.67 30.35 29.91 29.62 29.72 29.75 28.99 29.11
21.84 23.93 26.83 23.59 25.20 26.86 28.32 28.41 30.81 28.75 27.48 28.68 33.04 24.63 26.48 24.26 27.04 26.55 28.94 36.72 36.79 36.16 34.53 33.26 31.28 34.71 34.53 34.58 34.58 34.66 33.64 32.76 30.01 26.97 26.79 26.98 28.10 29.73 32.10 32.32 32.43 32.40 32.24 32.54 35.15 33.16 31.11 30.79 30.39 30.29 30.17 30.23 30.56 29.72
21.42 28.70 25.82 25.43 23.89 23.78 27.07 24.90 26.23 25.26 24.50 25.70 25.71 24.59 24.36 23.78 24.50 27.23 33.41 34.76 35.06 35.80 36.42 36.21 33.52 33.80 31.73 31.48 30.74 31.29 33.68 34.82 34.57 32.43 28.68 27.97 29.45 31.35 31.66 31.82 32.13 32.41 32.60 32.26 31.41 31.89 36.16 33.59 33.93 30.29 30.02 29.64 29.99 29.07
27.18 23.86 22.71 22.25 21.19 23.72 24.51 26.35 26.44 26.82 25.47 25.19 25.91 24.02 22.92 22.96 25.82 26.62 30.38 34.56 36.77 37.60 36.08 33.71 33.58 35.29 33.42 32.73 31.44 29.49 29.59 33.57 34.24 34.63 33.97 33.83 32.77 32.40 32.14 32.52 32.53 32.81 32.21 31.64 31.52 32.14 32.04 31.08 30.18 29.63 29.49 29.54 29.65 29.89
24.37 21.99 21.04 19.25 21.74 26.36 25.92 23.47 23.23 22.86 23.81 24.18 22.62 22.86 23.84 23.60 21.05 23.78 26.29 30.96 32.39 33.37 35.91 34.63 33.67 33.49 35.56 36.06 35.52 34.73 35.57 33.60 32.76 33.23 32.54 32.60 32.65 32.45 32.13 32.25 32.34 32.29 31.80 31.58 31.74 31.54 31.10 30.48 29.88 29.76 29.49 29.42 29.45 28.86
24.55 24.79 24.63 23.64 22.91 22.14 22.23 20.95 19.63 20.46 21.09 20.82 21.06 22.25 22.29 23.32 21.47 25.23 27.20 28.78 31.48 33.22 32.55 33.17 34.21 33.90 33.75 33.26 33.05 33.60 34.29 33.50 34.07 35.34 35.70 35.32 34.77 33.68 32.56 32.01 31.81 31.68 31.16 31.13 31.17 31.05 30.09 29.79 29.61 29.42 29.16 28.88 28.92 28.93

GFSWCAN_sfc_wetblb_246.txt.gz
Wetbulb
47.35 47.74 47.74 48.26 48.08 48.93 50.27 51.70 54.36 55.49 58.55 57.93 57.30 56.16 54.60 53.37 53.48 46.11 40.92 42.46 40.60 32.11 31.40 34.70 34.81 35.51 33.37 31.00 27.26 29.18 30.01 28.96 27.14 29.71 25.44 24.11 24.43 24.54 23.10 23.97 23.89 23.13 17.90 15.03 13.44 10.16 19.68 27.54 25.80 20.58 22.51 25.62 27.34 26.97
46.74 47.34 47.62 47.68 47.80 48.15 49.46 50.68 52.31 54.44 55.46 57.71 57.09 56.11 54.64 53.87 53.40 46.78 39.83 40.52 40.24 35.12 32.18 35.54 35.48 35.42 34.77 35.28 31.57 29.47 33.53 29.78 33.29 29.99 25.44 24.43 24.50 21.72 23.57 23.89 23.34 20.59 25.26 23.26 23.65 23.65 26.49 26.96 26.19 28.08 27.90 26.45 26.99 27.26
46.12 46.56 46.96 47.42 47.60 47.80 48.55 49.87 51.07 53.33 54.98 56.52 56.20 55.48 54.40 54.02 53.02 45.86 38.37 38.44 36.93 32.19 32.27 32.86 31.58 35.54 37.02 36.32 36.73 31.41 31.47 35.03 34.42 34.31 27.88 25.00 24.15 23.88 21.09 23.25 21.84 23.08 25.61 21.81 23.45 23.46 25.40 27.29 27.89 29.10 29.36 28.90 30.40 28.21
45.76 46.44 46.84 47.13 47.45 47.62 48.36 49.19 50.26 51.84 53.75 56.02 56.07 55.12 54.18 54.22 51.24 46.04 40.54 40.46 39.25 35.35 30.68 29.59 36.35 32.68 36.88 35.76 36.51 36.82 35.90 37.66 35.24 30.57 25.30 23.95 25.01 25.28 23.66 26.51 24.57 25.03 25.41 23.39 22.49 23.01 25.78 26.16 27.91 29.28 30.56 31.01 29.75 29.29
45.58 45.80 46.53 47.35 47.46 47.39 47.95 48.40 49.63 50.53 52.57 54.86 55.65 54.64 54.27 53.55 50.42 44.46 42.07 43.04 42.97 42.07 27.00 27.25 32.15 34.45 35.68 36.79 37.08 37.39 36.74 34.52 30.88 28.09 24.32 23.74 24.83 24.03 20.83 22.21 21.43 25.10 25.35 23.91 25.18 27.17 25.85 25.38 28.84 31.06 30.36 29.33 29.59 28.35
44.23 45.32 45.76 46.48 47.22 47.81 47.60 47.86 48.77 49.71 51.94 53.54 55.09 54.15 53.32 51.22 49.40 43.43 36.66 41.84 40.76 37.97 31.24 26.64 30.80 31.21 34.19 35.14 35.08 34.33 34.07 31.27 27.42 26.06 22.72 23.25 25.17 24.62 18.14 20.88 27.56 27.01 28.00 29.37 28.19 28.56 28.18 29.61 31.08 31.65 29.78 29.65 30.70 28.99
43.85 44.46 45.53 45.58 46.59 47.05 47.66 47.92 48.02 49.30 51.32 52.91 54.54 53.03 51.63 50.62 44.65 41.80 39.26 41.58 43.38 39.25 31.13 24.41 24.74 30.59 31.56 32.74 30.91 31.52 31.03 26.99 28.46 24.11 24.72 23.20 23.38 24.84 18.92 20.81 29.13 28.05 28.88 28.75 30.12 30.75 27.53 29.08 28.91 31.10 30.78 31.01 32.85 29.90
43.57 43.93 44.85 45.29 45.89 47.22 47.38 48.32 47.95 48.88 51.10 52.63 53.93 51.52 50.14 47.68 44.75 39.16 40.25 45.48 41.80 35.24 32.08 21.75 17.33 25.77 30.56 27.38 25.06 29.00 26.06 25.12 25.90 23.35 23.38 24.18 21.72 21.21 18.41 26.50 25.99 27.70 28.03 29.01 29.53 27.35 29.94 30.26 31.45 29.63 29.97 29.66 28.63 28.02
43.24 43.88 44.56 45.45 45.54 46.38 48.16 48.02 48.31 49.30 51.40 52.96 51.24 48.45 45.80 42.05 37.33 37.39 46.98 44.20 40.43 37.64 25.76 21.44 23.71 21.98 29.24 25.05 24.86 26.66 27.85 23.49 25.07 22.52 22.95 24.35 19.07 18.16 28.09 26.76 27.87 28.02 28.58 28.40 27.86 29.23 30.33 30.85 29.27 28.26 28.17 27.99 27.21 27.51
42.93 43.60 44.84 45.12 44.99 46.40 48.43 48.07 48.35 50.23 50.76 50.67 46.70 42.00 34.75 38.29 46.44 47.66 41.36 35.85 34.25 30.33 28.36 23.61 25.31 22.18 27.62 25.24 21.80 24.56 22.49 20.76 19.65 23.30 23.08 18.38 21.60 27.14 28.84 29.63 30.93 30.63 29.75 29.88 27.70 26.75 28.03 27.71 27.67 26.44 27.26 28.09 28.37 28.51
42.69 43.13 44.33 43.89 44.45 46.74 48.49 48.23 49.48 50.61 49.63 44.03 39.71 36.86 36.50 46.72 43.08 37.91 32.98 31.73 26.27 25.00 25.11 25.58 24.89 23.72 28.65 25.76 24.23 24.51 20.64 15.11 18.71 22.79 21.39 19.19 21.15 25.12 29.10 28.09 31.08 29.94 31.52 31.76 31.17 32.05 32.18 31.10 28.73 27.24 27.87 28.87 29.45 29.23
42.22 42.96 43.62 43.20 43.84 45.25 48.89 49.01 50.08 48.51 44.70 43.93 41.05 39.55 38.31 36.21 33.69 35.43 33.26 31.95 31.06 31.27 25.90 25.96 26.52 28.14 26.20 27.51 26.58 22.78 20.42 19.38 19.16 22.04 16.91 19.65 26.64 28.98 29.45 29.02 30.41 30.74 31.27 29.60 31.87 31.19 30.50 30.10 29.41 28.92 28.48 28.78 29.56 29.56
42.24 43.03 43.36 43.16 43.66 45.95 48.44 49.10 49.51 49.50 45.12 41.90 39.23 33.62 32.67 33.49 33.94 32.81 30.65 30.50 29.29 26.25 26.43 26.73 25.86 27.96 28.34 27.05 24.18 22.39 17.96 21.04 23.86 16.28 20.00 25.06 28.31 27.51 27.87 29.85 29.88 31.13 31.15 30.78 31.05 31.84 31.24 30.30 29.66 29.99 29.24 29.65 29.93 29.12
41.33 42.68 42.86 42.69 42.92 47.14 48.13 48.54 48.35 47.16 45.30 37.50 34.87 31.28 31.36 32.51 33.41 32.18 35.94 32.64 31.34 29.00 29.36 31.17 26.60 28.82 27.87 25.31 22.91 21.32 17.30 20.53 15.13 16.75 23.16 28.37 27.61 27.86 28.76 30.96 30.32 29.53 30.58 30.61 31.06 31.02 30.41 29.88 29.30 29.96 30.28 30.05 29.85 28.12
40.85 42.29 42.72 42.30 44.48 47.52 48.07 48.21 47.90 47.50 41.45 38.09 37.30 31.89 33.40 33.40 27.91 31.80 32.19 29.99 28.80 34.06 30.43 28.69 28.49 28.94 25.47 24.13 19.02 17.65 14.06 15.50 21.24 24.79 26.98 27.92 29.00 28.77 28.97 30.34 31.02 30.44 30.60 30.47 31.14 30.57 29.96 29.59 29.18 28.81 29.44 30.00 29.98 28.36
40.93 41.71 40.25 43.65 46.76 47.08 47.28 46.96 45.42 45.51 36.26 37.01 36.97 35.37 33.83 30.60 25.63 28.27 29.76 27.36 34.29 35.51 32.23 31.02 23.27 20.73 16.21 20.63 15.44 22.08 23.32 23.76 27.05 25.43 28.78 28.90 28.95 30.03 30.16 31.49 31.70 31.80 31.40 30.86 30.99 30.80 30.01 29.40 28.91 29.15 29.52 29.85 29.59 28.43
40.52 37.95 41.85 42.24 44.26 44.64 46.04 43.42 41.30 41.61 41.76 37.55 35.30 36.31 38.11 33.95 33.65 28.34 30.41 31.75 37.24 35.27 35.31 29.26 27.60 27.09 21.19 14.90 18.66 24.77 26.64 31.05 30.19 28.22 28.83 31.34 30.47 30.38 31.32 31.65 31.30 31.63 31.07 30.79 30.07 29.99 29.66 29.68 29.15 29.47 28.21 29.21 29.76 29.19
35.70 39.16 41.86 41.94 43.42 42.01 43.13 39.96 36.57 32.53 31.22 32.71 34.80 33.50 37.43 37.80 31.64 31.12 31.65 36.27 36.68 36.33 33.19 33.02 25.87 18.87 22.57 23.45 24.47 28.20 29.27 28.56 29.21 29.65 30.39 30.64 31.42 32.09 32.30 30.99 31.77 31.99 31.09 30.73 30.55 29.83 29.18 28.76 28.74 28.72 28.79 29.48 29.68 28.18
37.90 39.43 41.77 42.47 42.53 36.85 33.94 35.17 33.93 30.99 32.29 33.69 33.71 29.79 35.35 35.51 38.65 35.90 35.95 37.71 32.27 33.99 32.45 29.59 27.89 25.87 26.55 28.01 30.82 30.83 30.27 27.01 26.21 24.76 26.07 30.27 31.85 31.86 31.51 31.73 31.97 31.60 30.97 30.15 29.34 29.63 29.86 30.14 30.19 29.03 29.70 30.08 29.14 26.63
40.47 41.20 41.96 42.56 42.26 33.09 30.96 31.64 32.58 32.26 31.67 32.80 32.86 33.31 34.14 35.83 35.16 35.79 36.83 31.82 33.11 33.98 32.99 27.97 29.14 30.11 32.79 33.09 34.37 37.92 34.64 30.50 29.07 26.72 25.98 28.64 31.10 31.16 31.00 31.62 31.55 31.17 30.71 29.88 29.92 31.97 28.39 26.74 27.41 29.19 30.08 30.12 28.49 26.50
38.92 38.26 40.93 40.99 33.04 32.31 31.50 31.74 31.18 32.18 33.46 33.66 32.19 35.32 32.16 33.54 34.36 33.68 34.83 32.07 31.04 32.83 32.28 30.16 30.84 31.02 33.31 34.12 36.82 36.15 32.99 34.53 34.24 33.34 30.44 27.59 30.61 31.54 31.16 31.96 31.69 31.44 30.27 29.71 29.08 29.07 30.84 28.91 28.54 29.50 31.34 30.21 28.85 27.57
36.91 40.31 35.53 37.01 31.86 31.47 29.46 31.49 31.81 32.18 31.48 32.54 31.40 32.61 31.96 31.92 32.40 33.14 32.79 30.87 29.48 41.07 31.68 32.41 32.35 32.30 32.90 34.16 34.84 36.25 35.53 33.81 31.41 34.82 35.41 33.61 29.48 30.03 30.47 31.14 30.62 30.00 30.25 29.75 30.06 29.84 29.37 28.89 29.40 29.76 30.08 29.70 30.55 27.53
39.43 38.08 33.18 31.91 29.74 29.57 26.94 31.55 28.87 30.49 29.32 30.58 32.94 30.97 30.16 31.26 32.84 33.94 31.62 32.23 30.27 31.72 32.80 31.66 31.74 33.98 35.26 34.55 34.48 34.00 33.67 34.05 32.62 32.68 32.30 32.26 32.41 32.58 32.18 31.71 32.11 30.41 29.28 30.12 31.46 30.86 29.23 31.51 32.19 29.63 30.21 30.16 28.46 27.86
38.37 31.81 29.30 28.19 28.05 25.29 27.40 25.10 27.15 28.12 28.55 29.40 31.89 25.72 27.02 29.17 31.38 29.28 30.62 29.26 29.43 29.41 28.35 31.42 33.82 31.94 32.21 32.74 32.12 32.37 33.66 34.63 33.19 32.79 33.16 31.71 30.70 31.02 32.05 31.84 32.13 32.17 32.12 31.49 31.10 30.11 29.55 30.00 32.52 30.00 30.12 29.55 28.59 28.18
27.93 27.32 28.31 24.37 26.88 22.95 21.78 21.51 23.52 25.23 25.02 26.58 24.70 23.30 25.50 29.73 27.68 27.88 29.93 32.50 25.85 29.20 30.15 33.73 35.27 36.15 33.88 33.06 32.75 33.39 34.71 34.64 33.06 31.48 32.22 33.33 32.11 31.35 30.70 31.16 30.74 31.35 31.99 30.26 29.17 28.78 29.09 30.35 29.88 29.20 29.72 29.67 28.57 27.65
23.34 27.08 24.55 22.33 20.14 20.05 21.13 19.76 21.68 24.55 25.15 23.39 26.16 26.20 26.38 27.14 28.17 29.21 33.65 31.92 29.34 32.14 31.49 33.60 34.39 32.52 34.49 35.21 32.68 32.25 33.02 36.07 35.20 32.04 32.33 33.52 32.71 31.35 29.08 27.72 26.95 27.60 31.60 32.24 30.17 29.12 28.96 29.69 28.91 28.90 29.42 30.71 32.74 28.62
22.66 23.17 24.88 24.50 22.48 24.00 24.41 26.64 28.42 26.31 24.54 22.77 23.46 23.56 24.89 27.62 29.54 31.35 30.93 38.38 34.64 36.38 36.25 37.75 38.91 38.88 36.84 35.20 35.10 37.02 36.70 36.49 35.05 35.54 35.21 34.64 34.51 34.44 32.76 30.00 28.70 30.62 31.89 32.05 31.37 30.50 29.54 29.02 28.91 29.34 29.34 29.97 30.91 29.39
26.34 19.98 20.40 23.89 24.59 26.61 23.84 25.19 25.63 25.32 27.73 27.50 25.14 23.68 28.78 32.79 34.02 30.62 30.56 33.19 39.83 38.18 36.97 37.46 38.04 39.32 39.18 37.75 37.29 35.82 35.34 34.43 33.58 33.87 33.14 30.87 31.26 32.84 32.63 31.04 33.39 34.64 32.77 32.55 31.91 31.57 31.02 30.43 29.47 29.37 29.46 29.58 29.59 29.00
17.74 16.33 21.35 21.64 18.40 25.15 25.00 26.50 28.96 32.16 30.95 27.60 29.94 27.08 28.81 28.15 30.03 28.11 28.19 37.14 38.28 37.89 36.16 35.11 33.37 36.35 36.70 36.42 36.19 35.92 34.10 33.23 30.28 27.50 27.43 27.43 27.75 28.76 31.88 32.18 32.28 32.30 32.19 32.24 35.21 33.35 31.50 31.04 30.45 30.20 30.34 30.54 30.47 29.37
14.20 23.48 23.37 20.61 19.15 22.08 26.86 29.62 28.06 28.35 28.19 28.44 26.50 26.28 24.99 23.97 24.78 26.36 29.95 36.04 36.46 37.63 38.89 38.71 35.54 35.96 33.17 32.89 31.74 32.05 34.98 36.26 36.93 35.07 31.01 29.40 30.61 32.39 31.64 31.05 31.26 31.55 32.03 31.80 31.42 31.94 36.00 33.11 33.30 30.69 29.51 29.38 29.59 28.50
21.60 23.44 18.55 23.58 22.40 27.73 27.93 27.14 26.24 26.91 27.64 26.83 26.04 24.95 24.24 24.29 25.78 25.98 30.52 35.92 38.00 39.48 38.91 36.85 35.70 37.08 34.73 34.21 32.87 30.60 30.84 35.28 36.76 37.80 35.34 36.64 33.95 32.34 32.00 31.96 32.17 32.32 32.80 32.15 31.32 31.37 31.15 30.34 29.46 28.96 28.97 29.13 29.45 29.68
23.84 23.32 23.05 15.16 19.03 24.26 25.10 25.35 24.67 24.32 25.25 25.70 24.79 23.25 23.93 23.46 22.99 25.50 27.20 31.67 35.48 37.08 39.08 37.28 36.10 35.47 37.78 38.36 37.98 36.23 37.89 35.85 35.69 34.37 34.63 33.57 32.44 32.85 32.65 32.71 32.84 32.90 32.37 31.51 31.58 31.45 30.60 29.92 29.45 29.27 29.08 29.27 29.65 29.09
24.12 24.78 26.70 22.69 23.13 22.62 23.48 23.33 21.89 21.37 21.85 22.10 22.30 23.80 23.41 24.47 24.67 27.68 26.82 29.09 33.67 37.69 38.25 37.88 39.04 38.83 37.68 37.07 36.41 35.63 36.58 35.62 35.71 36.50 36.04 35.55 35.38 34.53 33.60 33.09 33.03 32.72 31.75 31.39 31.52 31.20 30.42 29.79 29.62 29.50 29.61 29.62 29.83 29.22

GFSWCAN_sfc_wetblb_249.txt.gz
Wetbulb
46.43 46.60 47.52 48.05 48.20 48.15 48.58 49.22 51.01 52.02 53.40 55.10 57.86 57.14 55.37 53.52 52.82 45.76 39.13 40.27 40.55 32.37 31.41 33.91 34.41 33.30 30.86 30.27 27.55 29.01 29.76 28.80 27.30 26.71 26.68 24.76 24.59 24.15 23.24 24.19 24.30 23.61 17.77 14.05 12.27 10.89 21.20 26.21 24.67 21.38 22.78 24.48 26.18 26.51
46.29 46.41 46.74 47.28 47.61 47.97 48.15 48.52 49.49 51.03 51.74 53.38 54.99 57.08 55.58 54.04 53.29 47.19 38.88 39.36 39.62 35.89 32.41 34.61 34.64 34.76 34.34 34.45 31.18 28.35 32.89 28.65 32.08 29.75 25.73 24.29 24.19 21.10 23.38 24.47 22.41 21.26 25.40 23.26 24.24 24.93 25.18 26.56 24.55 26.64 26.95 25.20 26.51 26.59
45.28 45.97 46.27 46.74 47.11 47.51 47.89 48.28 48.86 49.72 51.14 51.82 53.74 56.16 55.87 54.19 52.99 45.86 37.76 37.41 36.93 32.65 32.71 33.36 32.03 35.19 36.30 35.31 36.00 31.15 29.66 33.75 33.38 33.61 27.54 24.70 24.87 23.71 21.57 23.90 21.87 22.61 25.14 22.46 24.12 23.00 24.12 26.61 26.63 27.96 28.05 27.47 29.15 27.86
44.61 45.66 46.12 46.61 47.24 47.77 47.80 47.90 48.42 48.66 50.04 51.10 52.36 54.51 55.55 53.84 50.41 45.20 40.33 39.13 39.26 36.32 32.04 30.90 36.42 33.05 35.87 34.64 35.43 35.93 35.80 35.86 33.52 29.15 24.63 23.75 25.97 24.84 23.14 26.20 24.99 25.02 24.92 23.01 22.29 21.14 24.86 25.34 26.81 28.27 29.27 29.92 28.63 28.81
44.53 45.12 45.41 46.12 46.42 47.03 47.90 48.32 48.18 48.08 48.91 50.21 51.43 53.09 55.10 53.46 49.65 43.18 40.53 40.60 41.25 42.28 29.19 27.52 32.67 34.48 35.72 36.25 35.95 36.70 36.36 33.28 29.35 27.37 24.08 25.68 23.70 23.77 19.48 21.69 20.97 24.39 25.44 24.96 26.83 26.84 26.08 25.02 27.70 29.94 28.92 28.02 28.36 28.16
44.29 43.79 44.23 44.96 45.91 46.11 46.95 47.50 47.95 48.33 48.04 48.75 50.78 52.22 54.44 51.86 48.92 43.18 36.71 41.05 40.10 37.76 31.49 25.89 30.52 31.41 33.93 35.26 34.57 33.76 33.44 29.88 25.42 25.78 22.08 22.62 23.98 24.74 19.63 22.34 28.53 26.07 27.14 28.90 28.16 28.16 26.79 28.08 30.06 30.87 28.98 28.45 29.00 28.24
42.78 43.26 43.66 44.31 44.74 45.93 45.65 46.74 47.74 47.79 48.39 48.16 49.92 51.58 53.71 50.59 43.58 40.49 39.55 41.81 42.13 39.05 31.75 23.22 23.71 29.97 30.60 31.33 30.52 30.83 29.55 26.32 27.69 22.66 23.68 23.16 23.14 24.00 19.66 22.50 30.26 26.80 27.71 26.93 29.08 29.79 26.47 27.58 27.53 30.32 29.71 29.80 32.32 28.48
42.35 42.82 43.26 43.71 44.19 45.15 45.87 46.16 46.75 48.15 48.08 48.30 49.40 51.09 52.40 49.03 45.29 40.12 40.43 44.20 40.44 34.40 32.33 21.91 17.84 25.03 29.09 26.52 25.99 27.98 27.34 26.14 25.39 22.13 22.72 23.75 21.43 21.27 22.34 27.42 25.55 26.42 26.54 27.72 29.21 26.36 29.37 29.21 30.44 28.76 28.86 28.48 27.39 26.65
42.06 42.57 42.76 43.31 43.90 45.10 46.11 45.65 46.72 47.57 48.11 48.51 48.87 50.69 46.74 42.95 37.54 38.46 46.37 43.44 39.56 37.99 26.93 22.26 24.94 22.96 28.92 23.87 25.02 27.42 26.66 23.42 24.24 22.97 22.96 23.90 19.42 20.67 31.23 27.45 26.42 26.72 28.41 27.94 26.70 28.02 29.13 29.65 28.96 27.69 27.56 26.81 26.03 26.05
41.33 41.75 42.69 43.19 43.53 44.13 45.38 45.20 46.25 48.07 47.98 48.42 47.63 43.43 36.72 39.94 46.73 47.28 41.89 36.06 34.83 29.12 26.53 23.18 24.78 21.80 26.96 24.43 21.79 25.76 24.09 22.29 23.21 24.51 22.67 19.96 23.08 28.81 30.16 30.09 31.00 29.79 29.31 28.68 26.52 25.79 27.46 27.51 27.41 26.36 26.41 26.86 27.12 27.08
40.91 41.38 41.91 42.82 43.33 43.78 44.69 44.45 45.95 48.35 47.44 45.34 39.85 38.03 40.11 46.32 42.54 38.25 32.81 33.19 26.55 25.16 23.98 24.59 24.25 22.73 27.41 25.69 24.08 25.20 22.13 13.84 19.21 23.75 23.07 21.75 20.49 26.70 29.17 28.93 30.87 29.98 30.76 31.75 31.03 31.14 31.75 31.00 28.75 27.53 26.87 27.42 28.05 27.55
40.74 41.19 41.55 42.25 43.22 43.70 43.94 44.03 45.37 45.50 44.91 43.74 41.61 40.76 40.51 35.00 33.53 34.72 33.31 31.35 28.15 30.66 24.66 24.59 25.63 27.64 25.37 26.86 25.75 22.39 21.55 18.99 21.56 22.10 18.09 21.01 25.51 29.50 28.44 29.11 29.78 29.75 31.02 28.62 31.38 30.68 30.32 30.06 29.75 28.91 28.04 27.92 28.13 27.86
40.45 41.04 41.43 41.73 42.87 43.44 43.35 43.59 43.61 47.23 44.86 42.39 38.63 33.63 32.19 32.59 32.02 31.53 29.01 30.15 28.77 25.44 25.30 26.10 26.11 27.24 26.63 26.09 23.31 22.25 18.60 22.21 23.43 17.39 21.93 25.44 28.34 27.26 28.27 29.30 28.93 30.26 30.67 30.09 30.23 31.00 30.26 29.30 29.57 29.74 28.60 28.71 28.48 26.81
40.37 40.92 41.03 41.45 42.33 43.37 42.86 43.58 43.78 46.35 44.02 35.07 31.28 27.97 29.29 30.13 31.82 33.45 33.39 32.86 30.45 28.15 28.12 32.09 26.85 28.84 27.09 25.85 23.91 22.58 17.48 20.27 14.66 15.87 22.90 28.04 27.22 27.38 28.16 29.85 29.79 28.77 30.11 29.96 30.07 29.83 29.20 29.04 28.82 29.65 30.07 29.61 28.23 26.00
40.65 40.85 41.01 41.09 41.85 42.39 43.29 44.81 45.47 46.36 41.30 32.43 30.93 29.34 30.32 34.68 32.03 29.27 28.55 28.83 27.61 34.29 32.80 29.04 28.50 29.24 25.81 22.89 20.80 16.78 13.39 14.46 20.99 26.37 27.62 31.10 29.26 28.25 28.43 29.40 30.27 29.66 30.10 29.99 30.46 29.68 29.22 29.21 29.01 28.54 29.05 29.39 27.87 26.68
40.49 40.27 38.29 40.91 42.28 42.00 43.39 45.91 45.23 42.16 35.44 31.56 31.11 31.12 35.01 33.49 26.40 29.05 29.48 24.57 34.19 35.27 35.45 31.82 26.56 25.14 21.64 21.17 13.94 21.00 21.88 23.79 29.15 27.29 31.66 29.37 28.98 29.31 29.61 30.59 30.76 30.82 30.94 30.67 30.90 30.26 29.59 29.25 29.18 29.09 29.01 28.87 27.09 26.65
39.99 34.05 40.18 40.85 41.28 42.46 43.48 43.48 40.93 32.86 32.16 31.40 31.74 34.85 36.69 33.41 32.44 28.94 29.47 30.96 36.51 36.41 35.03 28.46 25.33 27.42 20.69 14.86 18.03 24.62 27.87 32.89 32.40 30.35 28.33 30.56 29.98 29.86 30.57 31.10 30.64 30.82 30.78 30.79 30.55 29.73 29.59 30.06 29.67 29.21 28.00 28.37 27.33 26.70
33.50 36.44 40.31 40.86 40.91 40.94 41.04 38.86 34.28 31.83 30.10 31.80 31.73 35.47 36.37 37.81 31.75 31.37 32.28 35.70 37.47 37.13 32.94 33.68 26.31 19.80 23.33 22.30 23.61 29.64 29.20 29.31 27.96 27.60 28.46 29.51 30.71 31.01 31.95 30.82 31.18 31.24 30.74 30.77 30.55 30.10 28.86 28.49 28.93 29.01 29.45 28.90 27.34 26.06
36.18 37.72 40.17 40.91 40.45 37.20 31.03 33.93 33.35 30.56 30.80 32.49 33.52 35.02 35.50 35.40 34.49 36.91 35.33 38.12 33.86 34.35 31.82 29.43 30.59 28.58 27.41 27.66 31.87 30.74 30.90 29.46 27.08 25.25 25.62 29.18 31.16 31.46 31.35 31.46 31.42 30.91 30.49 30.18 29.83 29.62 29.50 30.21 30.53 29.78 29.99 29.42 28.08 26.16
39.61 39.90 40.41 40.68 40.63 32.57 30.53 31.28 32.25 31.18 30.17 31.93 33.39 34.03 34.05 35.07 34.91 35.90 35.32 35.89 33.35 32.93 33.14 31.57 38.16 31.34 33.15 33.48 33.84 38.41 37.25 30.41 29.23 25.87 25.41 27.81 30.76 30.77 30.82 31.29 31.28 30.93 30.28 30.17 30.36 32.00 29.19 27.57 28.81 29.64 30.14 30.03 27.75 26.00
37.08 37.05 39.39 39.22 33.22 32.43 31.38 31.22 30.80 31.76 32.35 31.57 34.08 34.22 34.09 32.53 33.54 34.41 34.39 33.47 32.42 33.12 38.70 32.20 30.49 32.24 33.58 33.70 36.97 37.51 33.47 34.03 33.40 31.30 30.11 27.04 30.06 31.28 30.83 31.77 31.27 31.20 30.12 29.59 29.27 29.40 30.23 28.63 28.75 29.67 31.08 30.37 28.54 27.35
31.33 38.82 34.25 35.97 32.20 31.61 29.53 29.67 31.22 32.29 31.62 32.26 32.77 34.53 32.55 31.77 30.92 33.54 34.36 32.10 32.87 40.21 31.57 32.34 33.35 32.81 32.82 33.76 35.03 36.71 36.72 34.40 33.20 35.71 35.73 33.65 29.21 29.56 30.19 30.79 30.49 29.94 30.22 30.06 30.39 29.88 29.74 29.92 29.20 29.98 30.60 29.63 29.76 26.87
36.49 36.17 32.86 32.84 29.14 29.36 24.65 30.54 28.82 29.95 27.25 28.88 32.03 31.32 31.29 31.88 32.70 35.01 32.99 32.98 36.16 32.97 32.50 31.93 32.87 33.52 35.23 33.57 35.00 34.73 35.37 35.13 33.55 33.52 32.56 32.73 32.56 32.57 32.14 31.50 32.16 30.43 29.39 30.23 31.68 31.11 29.84 31.36 31.79 30.04 30.16 29.52 27.64 26.95
36.39 31.30 29.22 27.81 27.66 25.91 26.77 26.08 28.00 27.07 28.76 26.77 29.45 30.79 30.07 30.79 31.77 31.23 30.46 32.35 35.41 30.81 29.29 31.33 32.31 30.55 30.90 31.95 32.45 33.17 34.24 36.05 33.67 32.74 33.72 32.25 30.95 31.08 32.07 31.77 32.29 32.53 32.43 31.57 31.25 30.62 29.48 29.60 32.15 30.28 29.85 28.71 27.96 28.11
25.66 25.57 27.07 24.26 27.41 23.32 13.86 14.60 23.14 24.74 22.68 25.98 25.03 25.37 26.49 29.72 29.05 28.72 30.21 36.49 38.64 38.11 32.60 31.86 33.00 35.65 34.58 33.42 32.97 33.45 34.84 34.99 33.11 31.76 32.48 34.12 32.51 31.19 30.61 31.27 31.23 32.02 32.79 30.82 29.66 28.97 28.90 30.26 29.96 29.54 29.33 29.07 28.27 28.09
20.54 23.42 24.84 20.77 23.15 16.63 15.74 14.66 18.13 20.77 23.22 22.74 24.89 26.51 27.51 26.49 26.27 27.76 33.55 33.79 37.17 40.09 36.73 33.40 33.61 32.60 32.75 34.31 32.15 32.54 33.23 36.28 35.54 32.41 32.62 34.45 33.32 31.86 29.84 28.69 28.10 28.63 32.61 32.73 30.69 29.23 29.14 29.86 29.18 29.14 29.10 30.21 32.19 28.28
19.59 15.87 23.73 17.12 22.69 24.15 20.78 22.55 23.76 23.14 23.60 23.12 23.63 23.29 24.38 22.53 26.72 31.80 33.07 40.51 36.90 39.98 41.14 38.42 37.84 37.74 37.95 34.56 34.55 36.50 36.76 37.35 36.21 36.38 36.06 35.52 35.48 35.66 34.03 31.09 29.79 31.43 32.94 32.73 31.82 30.83 29.75 29.61 29.28 29.58 29.33 29.82 30.32 28.82
20.01 18.28 21.55 23.73 22.77 25.25 24.11 17.22 22.05 21.08 23.99 27.22 25.41 22.33 24.14 27.50 31.97 34.27 33.05 38.90 43.55 41.49 38.37 38.31 39.35 39.11 37.53 36.97 36.68 36.02 36.11 35.12 33.83 33.79 32.76 30.81 30.31 32.33 32.26 32.70 34.99 34.83 33.32 32.80 32.20 32.12 31.72 31.00 30.04 29.85 29.62 29.68 29.78 29.35
20.35 17.47 21.25 22.69 23.67 24.05 21.47 21.18 22.08 25.51 29.07 28.22 27.22 26.80 28.79 33.26 31.12 29.22 30.04 29.79 39.43 39.83 37.56 35.99 35.27 36.62 37.01 36.95 36.59 36.60 34.82 33.66 30.86 27.92 27.71 27.21 27.47 27.94 31.89 33.24 32.90 32.83 32.91 32.63 35.50 33.87 32.03 31.48 30.91 30.61 30.56 30.60 30.22 29.14
19.18 22.35 19.12 16.48 18.46 20.84 23.36 25.53 24.84 26.86 25.47 28.05 28.15 28.49 28.80 28.48 27.34 27.81 29.31 30.84 33.57 38.64 39.73 39.97 37.91 37.31 34.46 33.91 32.89 32.87 34.88 36.06 36.93 35.89 32.04 30.02 32.06 32.99 32.71 32.04 31.62 32.25 32.41 32.00 31.48 32.16 36.36 33.40 33.93 31.34 30.19 29.35 28.67 27.90
16.77 20.70 15.57 19.32 17.73 19.77 27.56 29.40 21.74 23.00 21.47 25.01 27.09 28.89 32.08 27.09 29.56 29.38 29.94 31.57 33.12 37.38 40.42 38.99 37.37 39.60 36.73 35.56 34.11 31.43 31.26 35.62 37.20 38.72 37.21 39.32 36.41 33.30 33.24 32.57 32.27 32.41 32.22 31.78 31.25 31.31 31.22 30.38 29.63 28.97 28.54 28.65 28.73 28.83
22.30 22.30 20.96 12.38 20.54 18.31 20.43 20.97 20.49 22.23 24.38 25.42 24.49 25.73 25.45 26.24 27.25 32.85 30.79 32.40 33.59 34.00 39.40 40.38 37.64 38.08 39.43 40.29 40.04 39.08 39.54 37.38 37.21 37.59 37.62 36.15 33.75 34.12 33.57 33.10 32.67 32.37 31.66 31.06 31.16 31.20 30.44 29.73 29.10 28.96 29.00 28.72 29.04 28.55
21.54 24.03 25.19 24.63 18.63 17.62 21.26 19.93 21.53 14.18 21.12 22.62 23.65 24.79 25.36 27.65 29.31 31.84 29.25 34.22 37.55 37.60 38.64 41.06 40.90 42.13 40.02 39.41 38.83 38.48 39.16 38.19 38.39 38.53 38.01 36.51 36.00 34.75 33.60 32.83 32.46 32.09 31.16 31.10 31.11 30.86 30.45 29.77 29.27 29.49 29.63 29.44 29.51 28.93

GFSWCAN_sfc_wetblb_252.txt.gz
Wetbulb
45.51 46.37 47.30 46.99 47.64 48.03 48.23 48.58 48.76 49.42 50.86 52.02 52.88 54.78 56.53 54.06 52.58 45.00 39.33 39.07 39.97 32.46 30.67 33.14 33.96 31.58 29.79 30.04 28.14 28.14 29.40 28.36 26.21 25.71 27.15 25.82 25.25 24.33 23.51 24.35 24.21 23.51 17.65 14.06 12.24 11.91 22.88 25.07 23.74 22.21 23.80 23.47 25.19 24.65
45.40 45.65 46.54 46.69 46.78 47.35 47.66 48.03 48.34 49.00 49.39 50.45 51.91 53.15 55.99 54.83 53.31 46.17 38.90 38.68 38.94 35.57 32.35 33.72 33.52 34.03 33.46 33.29 30.59 27.46 32.07 28.26 31.51 29.20 25.88 24.27 24.36 20.82 23.65 24.49 21.53 22.40 26.10 24.12 25.18 26.24 25.12 26.54 24.12 25.91 26.15 24.48 25.26 25.41
45.01 44.90 45.62 46.26 46.95 47.50 48.00 48.19 47.89 48.14 48.85 49.23 50.60 52.03 53.56 55.29 53.47 45.93 37.16 36.85 36.94 32.67 31.76 32.22 31.52 33.55 35.28 34.01 34.81 30.58 28.91 33.00 32.87 33.64 28.07 25.35 25.00 23.63 21.54 23.57 21.16 21.71 24.38 23.14 25.07 24.12 24.38 25.95 25.37 26.68 26.92 26.07 27.60 26.52
44.48 44.55 44.90 45.91 46.35 46.97 47.35 48.16 48.71 48.04 48.41 48.65 49.49 50.97 52.55 54.62 50.90 44.81 39.80 37.76 39.35 36.59 32.62 30.31 35.31 32.13 35.49 34.34 35.21 35.48 34.85 34.69 32.46 29.20 24.68 23.99 26.57 24.91 23.92 26.20 25.48 24.87 24.42 23.19 23.10 21.91 22.95 25.21 26.38 27.14 28.02 28.88 27.45 27.56
43.47 43.87 44.81 44.99 45.26 46.02 46.60 47.08 47.85 48.20 48.25 48.92 48.76 49.36 51.25 52.96 49.85 42.84 39.61 39.12 40.09 42.23 30.64 27.33 31.20 32.48 35.00 35.64 35.93 37.06 36.01 33.05 29.76 27.34 24.49 25.82 23.50 23.38 19.18 21.92 21.43 23.93 25.36 25.79 29.20 28.10 27.71 25.89 28.11 28.71 28.46 27.10 27.30 26.85
43.64 44.31 44.37 43.97 44.41 44.85 45.70 46.45 46.26 47.63 47.96 48.02 48.76 48.59 49.85 51.91 48.52 43.28 37.56 41.14 40.36 37.78 31.88 27.04 30.07 29.90 33.35 35.31 34.61 33.28 33.16 28.36 26.05 26.08 22.63 23.05 24.01 24.96 21.49 24.13 29.92 25.52 26.62 29.17 29.80 27.70 25.82 26.61 29.21 29.89 28.48 27.49 27.75 27.09
44.19 43.58 43.18 43.48 43.90 44.21 44.59 45.51 46.40 46.54 47.10 48.46 48.47 48.10 48.73 50.74 45.97 41.13 40.27 42.55 41.73 39.10 32.86 24.60 24.77 29.63 29.40 30.54 30.73 30.48 28.90 26.19 27.54 22.32 24.18 23.81 23.31 23.23 19.71 25.38 32.47 27.06 27.36 25.65 27.56 28.42 25.36 26.20 26.47 29.27 28.78 28.58 31.67 27.09
42.14 42.09 42.63 42.85 43.03 43.59 44.21 44.82 46.52 45.90 46.94 47.35 48.33 47.69 48.52 49.84 46.17 41.02 40.24 43.88 40.15 34.81 32.81 22.65 19.12 25.49 28.94 25.62 25.80 28.75 27.67 26.74 24.69 21.92 22.34 22.95 21.37 21.26 21.36 29.24 26.11 26.04 25.71 25.76 27.75 25.87 27.90 28.26 29.83 27.68 28.18 27.89 26.05 24.80
42.05 42.27 42.17 42.53 42.71 43.10 43.62 43.91 46.05 45.35 45.96 47.93 47.24 48.50 47.13 44.00 39.91 39.44 45.67 43.09 39.26 38.35 29.29 23.46 25.84 24.18 28.87 23.73 24.52 27.33 27.42 26.24 24.99 22.41 22.62 23.27 19.23 20.68 31.79 31.07 27.26 26.20 27.99 27.07 26.09 26.75 28.35 28.50 28.44 27.12 27.73 26.11 25.08 24.49
41.42 41.18 41.60 41.75 41.96 42.76 43.56 43.48 45.24 44.91 46.13 46.99 46.29 43.51 37.02 41.50 45.82 45.96 41.59 38.16 37.16 33.49 27.42 24.99 25.78 23.00 26.87 24.61 21.55 25.25 22.98 21.57 22.44 24.47 22.33 19.78 23.34 28.65 32.18 32.66 32.28 29.11 28.43 28.91 25.66 24.54 25.72 26.75 26.83 26.94 27.23 27.69 27.00 25.87
40.73 40.90 40.92 41.01 41.49 42.08 43.27 43.51 44.57 44.55 45.63 42.34 38.23 36.09 41.40 46.69 42.73 37.75 32.83 33.29 32.73 31.69 24.90 24.94 25.14 23.59 27.37 26.10 25.08 24.95 21.46 12.79 19.80 23.86 22.38 22.18 20.36 27.25 38.77 32.35 30.88 30.90 30.23 31.87 31.51 32.02 31.76 30.95 28.36 27.56 26.79 26.94 26.87 26.07
40.39 40.51 40.59 40.81 41.42 41.79 42.44 43.32 43.54 42.65 42.13 42.03 40.67 41.74 42.14 35.75 33.03 32.40 31.80 31.68 31.45 30.72 24.92 25.22 25.65 27.76 25.25 27.12 26.28 22.84 21.89 18.32 22.19 21.46 17.03 21.85 27.73 32.72 31.40 33.73 30.29 30.53 30.42 30.19 30.37 30.16 29.90 30.51 30.00 29.22 28.18 27.12 27.29 26.22
40.17 39.96 40.36 40.69 41.34 41.33 41.73 42.35 43.54 43.64 43.46 43.01 38.36 32.34 31.04 31.69 28.75 30.13 27.90 30.52 26.92 25.90 24.69 25.97 26.17 26.16 25.31 26.01 22.45 22.03 18.16 22.50 23.19 16.23 21.82 27.13 31.30 29.32 27.64 30.00 29.45 30.54 31.20 29.57 29.57 30.79 30.86 29.57 29.75 29.28 27.89 28.21 27.57 25.53
40.15 39.93 39.99 40.70 40.99 41.06 41.90 42.17 42.70 41.64 40.54 34.41 30.38 26.22 27.89 27.93 30.10 32.43 31.58 27.27 29.10 26.56 27.72 32.33 26.30 28.35 26.69 25.97 22.51 22.64 16.63 19.31 13.57 14.36 23.00 28.45 31.74 28.91 27.12 29.52 29.02 28.65 29.64 29.87 29.39 29.59 29.13 28.85 28.76 29.20 29.31 28.76 27.21 25.01
40.07 40.09 40.52 40.31 40.97 40.98 41.31 41.93 42.41 40.55 38.25 31.93 30.93 26.95 28.37 32.81 34.53 32.54 28.00 27.52 28.15 33.13 34.00 28.91 29.06 29.02 25.13 22.23 21.41 17.07 15.42 14.26 19.14 26.20 28.56 32.88 31.37 28.65 27.55 28.49 29.32 29.33 29.96 29.45 29.33 29.03 28.75 29.22 28.58 27.95 28.50 28.48 26.99 25.51
40.16 39.85 36.87 40.53 40.42 40.78 41.20 41.40 39.75 40.59 35.03 32.84 30.29 29.31 32.33 32.87 32.08 31.03 27.34 24.16 32.56 35.22 33.98 31.81 27.19 26.62 25.19 24.06 13.74 20.57 21.24 21.56 29.02 26.74 33.08 31.36 28.63 28.84 28.30 29.65 30.21 30.61 30.79 29.73 29.71 29.58 29.43 29.21 28.96 28.48 28.36 27.68 26.23 26.02
39.95 32.88 39.16 39.95 40.34 40.49 41.10 38.06 39.10 33.75 31.70 30.73 30.09 32.42 33.41 34.07 34.57 31.49 29.59 30.16 37.05 35.03 33.09 27.07 27.22 29.17 22.12 15.82 17.54 24.23 25.09 33.25 33.85 32.30 31.15 30.48 29.28 29.47 29.51 30.18 30.54 30.50 30.32 29.80 29.56 29.37 29.48 30.27 29.34 28.26 27.27 26.44 25.88 25.87
32.88 34.45 39.58 39.90 39.41 39.26 38.08 37.45 33.94 32.02 28.72 31.38 31.29 32.78 34.81 38.10 36.27 33.01 30.68 35.03 36.18 35.44 32.35 31.36 26.42 20.57 23.68 22.66 21.93 27.22 28.63 30.16 28.96 30.53 29.77 28.78 29.25 30.27 31.04 30.27 30.76 31.05 30.27 29.99 29.91 29.56 29.33 28.55 28.49 28.58 28.92 26.98 25.23 24.47
34.60 34.81 39.13 40.21 39.12 35.77 31.26 31.64 33.14 29.40 29.28 31.65 29.41 31.95 30.18 33.02 38.08 39.66 34.90 35.82 35.33 34.98 33.21 27.83 27.01 27.81 30.96 27.21 30.57 33.76 29.96 30.84 30.60 28.19 27.62 28.41 30.82 31.31 31.22 30.91 31.05 30.70 30.45 29.71 29.32 29.33 29.73 30.37 30.49 29.90 29.23 27.71 26.38 25.50
39.56 39.49 39.51 39.47 38.46 32.29 30.03 30.96 31.49 31.23 28.14 28.65 31.36 30.63 30.67 31.91 34.57 36.00 35.84 35.24 33.62 33.90 34.09 31.80 34.96 32.02 33.44 33.66 33.60 37.63 38.90 33.43 30.04 26.25 23.69 25.91 30.04 30.64 30.15 30.70 30.87 30.80 30.46 29.86 29.96 31.90 29.56 28.89 29.41 29.68 29.51 28.98 26.36 25.39
36.40 34.62 37.85 37.16 32.50 32.47 30.99 30.03 30.03 31.63 29.39 26.61 24.99 29.58 28.41 28.79 32.18 33.33 33.72 34.89 33.29 32.70 34.29 38.58 29.95 32.49 34.70 34.53 35.10 37.42 35.34 34.55 33.48 33.17 28.41 26.35 29.43 30.81 30.33 31.29 31.20 31.30 30.14 29.69 29.13 29.37 30.94 28.94 28.92 29.95 30.56 29.68 28.09 27.46
30.11 37.78 29.84 34.80 32.00 31.79 29.55 31.15 29.37 31.82 30.55 31.83 29.35 27.44 28.65 30.20 31.27 32.76 34.82 32.02 31.95 35.98 38.66 36.16 33.80 34.00 33.62 34.25 35.48 37.21 36.68 35.73 32.85 34.04 34.57 33.22 28.70 29.35 29.99 30.23 30.22 29.89 30.18 30.51 30.62 29.98 30.03 30.20 29.72 30.20 30.39 29.19 28.51 26.38
35.72 33.57 30.06 32.03 28.78 28.92 25.60 29.43 27.47 28.89 19.47 27.37 30.91 25.70 25.68 28.78 32.48 35.06 31.75 32.87 34.29 35.82 38.88 39.66 33.54 33.28 33.66 34.01 34.23 34.40 35.56 35.64 33.66 32.66 32.42 32.24 32.16 32.47 32.26 31.30 32.14 30.71 29.75 30.49 32.07 31.58 30.25 31.30 31.76 30.14 30.12 28.61 26.86 26.76
36.16 29.19 25.38 24.67 26.15 24.35 25.19 26.33 28.84 27.39 27.86 27.13 27.53 29.42 30.39 30.79 32.74 31.94 31.19 33.36 35.49 34.52 33.71 32.69 33.36 33.24 32.45 31.53 31.54 32.11 33.60 34.94 32.23 31.89 32.81 31.98 30.99 31.25 32.36 31.97 32.46 32.68 32.88 32.20 31.89 31.10 29.86 30.00 32.19 30.11 29.37 27.76 27.41 27.72
21.13 21.12 23.32 15.68 21.44 23.83 16.05 13.76 21.49 24.77 22.70 11.96 16.82 25.23 27.78 29.43 28.39 29.19 30.44 34.24 36.68 35.03 36.62 36.63 34.76 39.15 41.74 41.00 31.77 32.25 34.16 34.58 33.15 31.77 32.54 33.83 32.68 31.65 30.88 31.75 31.84 32.41 33.15 31.34 30.27 29.41 29.38 30.56 30.07 29.41 28.88 28.39 27.53 27.72
16.59 15.33 19.10 14.94 12.08 19.94 18.41 17.41 14.99 18.78 18.54 15.66 18.38 20.68 27.66 26.00 25.38 26.40 30.92 36.03 34.25 36.63 38.08 37.01 37.37 36.46 37.96 41.62 39.74 31.18 33.35 35.04 34.47 32.43 32.45 34.63 33.43 32.03 30.28 29.11 28.71 29.19 33.08 33.25 31.14 29.49 29.48 30.15 29.46 28.97 28.51 29.73 31.79 28.56
11.91 11.68 15.93 12.76 19.20 21.41 19.40 22.69 22.93 18.74 15.85 16.48 15.04 20.92 20.02 22.22 24.05 28.66 33.92 35.12 35.72 37.67 42.22 42.49 41.27 39.64 40.68 40.75 34.83 35.06 36.15 36.30 35.61 35.12 35.04 35.87 35.82 36.50 34.57 31.93 30.42 32.10 33.52 33.35 32.16 31.17 30.20 29.97 29.49 29.49 29.30 29.88 30.26 29.23
20.41 16.10 14.98 19.01 18.00 22.33 21.14 22.33 19.02 19.26 19.30 20.59 20.02 17.75 18.70 23.56 27.55 33.35 33.93 34.81 36.87 36.78 39.51 42.70 43.43 43.10 42.82 43.39 39.87 36.25 35.80 35.31 33.73 33.30 32.32 30.45 30.66 32.69 32.94 33.13 35.30 35.43 34.17 33.52 32.66 32.65 32.17 31.36 30.49 30.21 29.76 29.63 29.80 29.91
15.11 20.09 18.55 15.30 20.50 19.67 20.21 20.05 21.40 24.53 24.73 24.05 23.27 23.91 23.46 28.35 32.89 32.60 32.97 33.85 34.36 36.99 36.57 35.65 35.92 37.99 36.84 36.49 37.42 37.26 35.41 34.92 32.29 27.57 27.57 27.85 28.05 28.02 32.68 33.48 33.35 33.86 33.78 33.34 35.81 34.39 32.72 32.14 31.85 31.36 30.99 30.79 30.32 29.57
15.30 20.37 16.90 17.76 17.68 17.66 22.02 24.22 23.51 28.20 29.64 29.27 28.85 27.97 27.85 28.44 30.93 29.94 30.88 31.83 34.14 36.60 37.63 38.55 37.52 36.12 35.76 34.03 33.24 34.23 35.70 37.00 37.30 34.51 31.72 29.93 31.51 33.79 33.39 32.74 32.77 33.44 33.50 33.04 32.38 32.76 36.82 34.50 34.74 31.91 30.77 29.64 28.65 27.89
22.02 21.64 14.93 18.56 19.42 22.96 25.46 27.13 24.78 25.85 24.60 27.03 26.43 27.68 28.78 31.30 28.88 29.18 29.97 32.77 34.65 36.11 36.88 36.70 37.20 38.01 37.28 36.16 34.88 32.98 31.98 35.25 37.13 37.88 38.01 37.83 37.13 34.00 34.28 33.79 33.83 33.79 33.45 32.94 32.30 31.97 31.87 31.19 30.40 29.43 28.96 28.27 28.07 28.27
13.82 18.79 19.73 15.62 20.39 25.45 19.39 20.81 22.91 24.48 26.07 25.42 24.30 24.68 23.26 22.69 24.15 29.61 30.05 32.42 33.04 33.58 36.41 38.31 37.53 38.13 39.17 39.78 38.92 39.02 38.89 37.93 36.55 37.52 37.04 37.77 34.80 35.01 34.51 34.30 34.00 33.61 32.94 32.25 31.86 31.75 31.05 30.57 29.84 29.32 28.56 28.15 28.26 27.87
15.01 21.90 23.35 22.43 20.51 13.71 22.24 21.32 17.83 18.64 16.50 22.70 24.46 25.70 26.00 25.95 24.42 29.54 30.10 34.37 36.70 36.75 37.37 38.71 39.65 40.39 40.16 40.04 40.52 40.59 40.01 39.74 38.53 39.13 40.07 38.38 37.06 35.86 34.72 34.24 33.75 33.19 32.19 31.90 31.83 31.50 30.71 30.39 29.53 29.03 28.94 28.74 28.80 28.74